Wetterdaten: Sonntag, 05.03.2017
Datum Zeit Temp. Aussen Temp. o. S. +5cm Feuchte Auss BlattFeu 1 Luftdruck Regen Sonnenschein Regendauer Solar Windben Empfang
05.03.2017 00:00 7,4 C 7,2 C 6,1 C 97 % 15 lf 993,8 hPa 0,0 l/m 0 min 2 min 0 W/m 16,7 km/h (3 Bft) 91,30 %
05.03.2017 00:02 7,4 C 7,2 C 5,6 C 97 % 15 lf 993,9 hPa 0,0 l/m 0 min 2 min 0 W/m 16,7 km/h (3 Bft) 93,75 %
05.03.2017 00:06 7,3 C 7,2 C 5,6 C 97 % 15 lf 994,1 hPa 0,0 l/m 0 min 2 min 0 W/m 33,5 km/h (5 Bft) 93,07 %
05.03.2017 00:08 7,3 C 6,7 C 5,6 C 97 % 15 lf 994,2 hPa 0,0 l/m 0 min 2 min 0 W/m 23,0 km/h (4 Bft) 89,36 %
05.03.2017 00:10 7,2 C 6,7 C 5,6 C 97 % 15 lf 994,2 hPa 0,0 l/m 0 min 2 min 0 W/m 23,0 km/h (4 Bft) 93,48 %
05.03.2017 00:12 7,2 C 6,7 C 5,6 C 97 % 15 lf 994,4 hPa 0,0 l/m 0 min 2 min 0 W/m 27,2 km/h (4 Bft) 93,62 %
05.03.2017 00:14 7,1 C 6,7 C 5,6 C 97 % 15 lf 994,5 hPa 0,0 l/m 0 min 2 min 0 W/m 20,9 km/h (4 Bft) 97,87 %
05.03.2017 00:16 7,1 C 6,7 C 5,6 C 97 % 15 lf 994,5 hPa 0,0 l/m 0 min 2 min 0 W/m 23,0 km/h (4 Bft) 93,62 %
05.03.2017 00:18 7,1 C 6,7 C 5,6 C 97 % 15 lf 994,6 hPa 0,0 l/m 0 min 2 min 0 W/m 20,9 km/h (4 Bft) 95,74 %
05.03.2017 00:20 7,1 C 6,7 C 5,6 C 97 % 15 lf 994,6 hPa 0,0 l/m 0 min 2 min 0 W/m 23,0 km/h (4 Bft) 95,74 %
05.03.2017 00:22 7,0 C 6,7 C 5,6 C 97 % 15 lf 994,7 hPa 0,0 l/m 0 min 2 min 0 W/m 18,8 km/h (3 Bft) 97,83 %
05.03.2017 00:24 7,0 C 6,7 C 5,6 C 97 % 15 lf 994,7 hPa 0,0 l/m 0 min 2 min 0 W/m 18,8 km/h (3 Bft) 93,62 %
05.03.2017 00:26 6,9 C 6,7 C 5,6 C 97 % 15 lf 994,8 hPa 0,0 l/m 0 min 2 min 0 W/m 23,0 km/h (4 Bft) 97,87 %
05.03.2017 00:28 6,9 C 6,7 C 5,6 C 97 % 15 lf 994,9 hPa 0,0 l/m 0 min 2 min 0 W/m 23,0 km/h (4 Bft) 97,87 %
05.03.2017 00:30 6,9 C 6,7 C 5,6 C 97 % 15 lf 994,9 hPa 0,0 l/m 0 min 0 min 0 W/m 20,9 km/h (4 Bft) 95,74 %
05.03.2017 00:32 6,9 C 6,7 C 5,6 C 97 % 15 lf 995,0 hPa 0,0 l/m 0 min 0 min 0 W/m 23,0 km/h (4 Bft) 95,74 %
05.03.2017 00:34 6,8 C 6,7 C 5,0 C 97 % 15 lf 995,0 hPa 0,0 l/m 0 min 0 min 0 W/m 27,2 km/h (4 Bft) 100,00 %
05.03.2017 00:36 6,8 C 6,7 C 5,0 C 97 % 15 lf 995,1 hPa 0,0 l/m 0 min 0 min 0 W/m 23,0 km/h (4 Bft) 91,49 %
05.03.2017 00:38 6,8 C 6,7 C 5,0 C 97 % 15 lf 995,1 hPa 0,0 l/m 0 min 0 min 0 W/m 25,1 km/h (4 Bft) 97,87 %
05.03.2017 00:40 6,8 C 6,7 C 5,0 C 97 % 15 lf 995,2 hPa 0,0 l/m 0 min 0 min 0 W/m 23,0 km/h (4 Bft) 95,74 %
05.03.2017 00:42 6,7 C 6,7 C 5,0 C 97 % 15 lf 995,2 hPa 0,0 l/m 0 min 0 min 0 W/m 25,1 km/h (4 Bft) 97,87 %
05.03.2017 00:44 6,7 C 6,7 C 5,0 C 97 % 15 lf 995,2 hPa 0,0 l/m 0 min 0 min 0 W/m 16,7 km/h (3 Bft) 100,00 %
05.03.2017 00:46 6,7 C 6,7 C 5,0 C 97 % 15 lf 995,2 hPa 0,0 l/m 0 min 0 min 0 W/m 18,8 km/h (3 Bft) 97,83 %
05.03.2017 00:48 6,7 C 6,7 C 5,0 C 97 % 15 lf 995,2 hPa 0,0 l/m 0 min 0 min 0 W/m 16,7 km/h (3 Bft) 100,00 %
05.03.2017 00:50 6,7 C 6,7 C 5,0 C 97 % 15 lf 995,2 hPa 0,0 l/m 0 min 0 min 0 W/m 18,8 km/h (3 Bft) 97,87 %
05.03.2017 00:52 6,7 C 6,7 C 5,0 C 97 % 15 lf 995,3 hPa 0,0 l/m 0 min 0 min 0 W/m 14,6 km/h (3 Bft) 97,87 %
05.03.2017 00:54 6,7 C 6,7 C 5,0 C 97 % 15 lf 995,3 hPa 0,0 l/m 0 min 0 min 0 W/m 14,6 km/h (3 Bft) 100,00 %
05.03.2017 00:56 6,7 C 6,7 C 5,0 C 97 % 15 lf 995,4 hPa 0,0 l/m 0 min 0 min 0 W/m 14,6 km/h (3 Bft) 95,74 %
05.03.2017 00:58 6,7 C 6,7 C 5,0 C 97 % 15 lf 995,3 hPa 0,0 l/m 0 min 0 min 0 W/m 12,6 km/h (3 Bft) 100,00 %
05.03.2017 01:00 6,7 C 6,7 C 5,0 C 97 % 15 lf 995,4 hPa 0,0 l/m 0 min 0 min 0 W/m 8,4 km/h (2 Bft) 97,87 %
05.03.2017 01:02 6,7 C 6,7 C 5,0 C 97 % 15 lf 995,5 hPa 0,0 l/m 0 min 0 min 0 W/m 12,6 km/h (3 Bft) 100,00 %
05.03.2017 01:04 6,7 C 6,7 C 5,0 C 97 % 15 lf 995,5 hPa 0,0 l/m 0 min 0 min 0 W/m 10,5 km/h (2 Bft) 97,87 %
05.03.2017 01:06 6,7 C 6,7 C 5,0 C 97 % 15 lf 995,5 hPa 0,0 l/m 0 min 0 min 0 W/m 18,8 km/h (3 Bft) 97,87 %
05.03.2017 01:08 6,7 C 6,7 C 5,0 C 97 % 15 lf 995,5 hPa 0,0 l/m 0 min 0 min 0 W/m 16,7 km/h (3 Bft) 95,74 %
05.03.2017 01:10 6,7 C 6,7 C 5,0 C 97 % 15 lf 995,6 hPa 0,0 l/m 0 min 0 min 0 W/m 18,8 km/h (3 Bft) 93,48 %
05.03.2017 01:12 6,7 C 6,7 C 5,0 C 97 % 15 lf 995,6 hPa 0,0 l/m 0 min 0 min 0 W/m 10,5 km/h (2 Bft) 100,00 %
05.03.2017 01:14 6,7 C 6,7 C 5,0 C 97 % 15 lf 995,6 hPa 0,0 l/m 0 min 2 min 0 W/m 12,6 km/h (3 Bft) 100,00 %
05.03.2017 01:16 6,7 C 6,7 C 5,0 C 97 % 15 lf 995,6 hPa 0,0 l/m 0 min 2 min 0 W/m 12,6 km/h (3 Bft) 100,00 %
05.03.2017 01:18 6,7 C 6,1 C 5,0 C 97 % 15 lf 995,6 hPa 0,0 l/m 0 min 2 min 0 W/m 6,3 km/h (2 Bft) 100,00 %
05.03.2017 01:20 6,6 C 6,1 C 5,0 C 97 % 15 lf 995,6 hPa 0,0 l/m 0 min 2 min 0 W/m 12,6 km/h (3 Bft) 97,83 %
05.03.2017 01:22 6,6 C 6,1 C 5,0 C 97 % 15 lf 995,6 hPa 0,0 l/m 0 min 2 min 0 W/m 10,5 km/h (2 Bft) 95,74 %
05.03.2017 01:24 6,6 C 6,1 C 5,0 C 97 % 15 lf 995,6 hPa 0,0 l/m 0 min 0 min 0 W/m 12,6 km/h (3 Bft) 97,87 %
05.03.2017 01:26 6,6 C 6,1 C 5,0 C 97 % 15 lf 995,7 hPa 0,0 l/m 0 min 0 min 0 W/m 14,6 km/h (3 Bft) 97,87 %
05.03.2017 01:28 6,6 C 6,1 C 5,0 C 97 % 15 lf 995,7 hPa 0,0 l/m 0 min 0 min 0 W/m 14,6 km/h (3 Bft) 97,87 %
05.03.2017 01:30 6,6 C 6,1 C 5,0 C 97 % 15 lf 995,7 hPa 0,0 l/m 0 min 0 min 0 W/m 12,6 km/h (3 Bft) 97,87 %
05.03.2017 01:32 6,6 C 6,1 C 5,0 C 97 % 15 lf 995,8 hPa 0,2 l/m 0 min 0 min 0 W/m 10,5 km/h (2 Bft) 97,83 %
05.03.2017 01:34 6,6 C 6,1 C 5,0 C 97 % 15 lf 995,7 hPa 0,0 l/m 0 min 0 min 0 W/m 20,9 km/h (4 Bft) 95,74 %
05.03.2017 01:36 6,6 C 6,1 C 5,0 C 97 % 15 lf 995,7 hPa 0,0 l/m 0 min 0 min 0 W/m 12,6 km/h (3 Bft) 95,74 %
05.03.2017 01:38 6,6 C 6,1 C 5,0 C 97 % 15 lf 995,8 hPa 0,0 l/m 0 min 0 min 0 W/m 12,6 km/h (3 Bft) 93,62 %
05.03.2017 01:40 6,6 C 6,1 C 5,0 C 97 % 15 lf 995,8 hPa 0,0 l/m 0 min 0 min 0 W/m 16,7 km/h (3 Bft) 97,87 %
05.03.2017 01:42 6,6 C 6,1 C 5,0 C 97 % 15 lf 995,8 hPa 0,0 l/m 0 min 0 min 0 W/m 14,6 km/h (3 Bft) 93,62 %
05.03.2017 01:44 6,5 C 6,1 C 5,0 C 97 % 15 lf 995,8 hPa 0,0 l/m 0 min 0 min 0 W/m 18,8 km/h (3 Bft) 91,30 %
05.03.2017 01:46 6,5 C 6,1 C 5,0 C 97 % 15 lf 995,9 hPa 0,0 l/m 0 min 0 min 0 W/m 10,5 km/h (2 Bft) 97,87 %
05.03.2017 01:48 6,5 C 6,1 C 5,0 C 97 % 15 lf 995,9 hPa 0,0 l/m 0 min 0 min 0 W/m 12,6 km/h (3 Bft) 95,74 %
05.03.2017 01:50 6,5 C 6,1 C 5,0 C 97 % 15 lf 996,0 hPa 0,0 l/m 0 min 0 min 0 W/m 12,6 km/h (3 Bft) 95,74 %
05.03.2017 01:52 6,5 C 6,1 C 5,0 C 97 % 15 lf 996,0 hPa 0,0 l/m 0 min 0 min 0 W/m 20,9 km/h (4 Bft) 95,74 %
05.03.2017 01:54 6,5 C 6,1 C 5,0 C 97 % 15 lf 996,0 hPa 0,0 l/m 0 min 0 min 0 W/m 10,5 km/h (2 Bft) 97,87 %
05.03.2017 01:56 6,5 C 6,1 C 5,0 C 97 % 15 lf 996,0 hPa 0,0 l/m 0 min 0 min 0 W/m 16,7 km/h (3 Bft) 100,00 %
05.03.2017 01:58 6,5 C 6,1 C 5,0 C 96 % 15 lf 996,0 hPa 0,0 l/m 0 min 0 min 0 W/m 14,6 km/h (3 Bft) 95,74 %
05.03.2017 02:00 6,4 C 6,1 C 5,0 C 96 % 15 lf 996,0 hPa 0,0 l/m 0 min 0 min 0 W/m 14,6 km/h (3 Bft) 93,62 %
05.03.2017 02:02 6,4 C 6,1 C 5,0 C 96 % 15 lf 996,0 hPa 0,0 l/m 0 min 0 min 0 W/m 18,8 km/h (3 Bft) 97,87 %
05.03.2017 02:04 6,4 C 6,1 C 5,0 C 96 % 15 lf 996,0 hPa 0,0 l/m 0 min 0 min 0 W/m 14,6 km/h (3 Bft) 100,00 %
05.03.2017 02:06 6,4 C 6,1 C 5,0 C 96 % 15 lf 996,0 hPa 0,0 l/m 0 min 0 min 0 W/m 16,7 km/h (3 Bft) 97,87 %
05.03.2017 02:08 6,4 C 6,1 C 5,0 C 97 % 15 lf 996,0 hPa 0,0 l/m 0 min 0 min 0 W/m 23,0 km/h (4 Bft) 95,65 %
05.03.2017 02:10 6,4 C 6,1 C 5,0 C 97 % 15 lf 996,0 hPa 0,0 l/m 0 min 2 min 0 W/m 18,8 km/h (3 Bft) 93,62 %
05.03.2017 02:12 6,4 C 6,1 C 5,0 C 96 % 15 lf 996,0 hPa 0,0 l/m 0 min 0 min 0 W/m 16,7 km/h (3 Bft) 97,87 %
05.03.2017 02:14 6,4 C 6,1 C 5,0 C 96 % 15 lf 996,0 hPa 0,0 l/m 0 min 0 min 0 W/m 20,9 km/h (4 Bft) 97,87 %
05.03.2017 02:16 6,4 C 6,1 C 5,0 C 96 % 15 lf 996,0 hPa 0,0 l/m 0 min 0 min 0 W/m 16,7 km/h (3 Bft) 95,74 %
05.03.2017 02:18 6,4 C 6,1 C 5,0 C 96 % 15 lf 996,0 hPa 0,0 l/m 0 min 0 min 0 W/m 18,8 km/h (3 Bft) 97,83 %
05.03.2017 02:20 6,4 C 6,1 C 5,0 C 96 % 15 lf 996,1 hPa 0,0 l/m 0 min 0 min 0 W/m 14,6 km/h (3 Bft) 95,74 %
05.03.2017 02:22 6,4 C 6,1 C 5,0 C 96 % 15 lf 996,1 hPa 0,0 l/m 0 min 0 min 0 W/m 16,7 km/h (3 Bft) 95,74 %
05.03.2017 02:24 6,4 C 6,1 C 5,0 C 96 % 15 lf 996,1 hPa 0,0 l/m 0 min 0 min 0 W/m 18,8 km/h (3 Bft) 93,62 %
05.03.2017 02:26 6,4 C 6,1 C 5,0 C 96 % 15 lf 996,1 hPa 0,0 l/m 0 min 0 min 0 W/m 23,0 km/h (4 Bft) 95,74 %
05.03.2017 02:28 6,4 C 6,1 C 5,0 C 96 % 15 lf 996,2 hPa 0,0 l/m 0 min 0 min 0 W/m 14,6 km/h (3 Bft) 97,87 %
05.03.2017 02:30 6,4 C 6,1 C 5,0 C 96 % 15 lf 996,2 hPa 0,0 l/m 0 min 0 min 0 W/m 14,6 km/h (3 Bft) 95,65 %
05.03.2017 02:32 6,4 C 6,1 C 5,0 C 96 % 15 lf 996,1 hPa 0,0 l/m 0 min 0 min 0 W/m 20,9 km/h (4 Bft) 91,49 %
05.03.2017 02:34 6,4 C 6,1 C 5,0 C 96 % 15 lf 996,3 hPa 0,0 l/m 0 min 0 min 0 W/m 14,6 km/h (3 Bft) 93,62 %
05.03.2017 02:36 6,4 C 6,1 C 5,0 C 96 % 15 lf 996,3 hPa 0,0 l/m 0 min 0 min 0 W/m 23,0 km/h (4 Bft) 95,74 %
05.03.2017 02:38 6,4 C 6,1 C 5,0 C 96 % 15 lf 996,3 hPa 0,0 l/m 0 min 0 min 0 W/m 23,0 km/h (4 Bft) 95,74 %
05.03.2017 02:40 6,4 C 6,1 C 5,0 C 96 % 15 lf 996,3 hPa 0,0 l/m 0 min 2 min 0 W/m 20,9 km/h (4 Bft) 95,74 %
05.03.2017 02:42 6,4 C 6,1 C 5,0 C 96 % 15 lf 996,4 hPa 0,0 l/m 0 min 0 min 0 W/m 18,8 km/h (3 Bft) 93,48 %
05.03.2017 02:44 6,4 C 6,1 C 5,0 C 96 % 15 lf 996,3 hPa 0,0 l/m 0 min 0 min 0 W/m 23,0 km/h (4 Bft) 95,74 %
05.03.2017 02:46 6,4 C 6,1 C 5,0 C 96 % 14 lf 996,3 hPa 0,0 l/m 0 min 0 min 0 W/m 20,9 km/h (4 Bft) 95,74 %
05.03.2017 02:48 6,4 C 6,1 C 5,0 C 95 % 14 lf 996,4 hPa 0,0 l/m 0 min 0 min 0 W/m 14,6 km/h (3 Bft) 93,62 %
05.03.2017 02:50 6,4 C 6,1 C 5,0 C 95 % 13 lf 996,4 hPa 0,0 l/m 0 min 0 min 0 W/m 20,9 km/h (4 Bft) 95,74 %
05.03.2017 02:52 6,4 C 6,1 C 5,0 C 95 % 13 lf 996,4 hPa 0,0 l/m 0 min 0 min 0 W/m 23,0 km/h (4 Bft) 95,74 %
05.03.2017 02:54 6,4 C 6,1 C 5,0 C 95 % 12 lf 996,4 hPa 0,0 l/m 0 min 2 min 0 W/m 27,2 km/h (4 Bft) 95,65 %
05.03.2017 02:56 6,4 C 6,1 C 5,0 C 95 % 11 lf 996,4 hPa 0,0 l/m 0 min 2 min 0 W/m 20,9 km/h (4 Bft) 95,74 %
05.03.2017 02:58 6,5 C 6,1 C 5,0 C 95 % 10 lf 996,5 hPa 0,0 l/m 0 min 0 min 0 W/m 23,0 km/h (4 Bft) 97,87 %
05.03.2017 03:00 6,5 C 6,1 C 5,0 C 95 % 9 lf 996,4 hPa 0,0 l/m 0 min 2 min 0 W/m 20,9 km/h (4 Bft) 95,74 %
05.03.2017 03:02 6,5 C 6,1 C 5,0 C 95 % 8 lf 996,5 hPa 0,0 l/m 0 min 0 min 0 W/m 18,8 km/h (3 Bft) 97,87 %
05.03.2017 03:04 6,5 C 6,7 C 5,0 C 95 % 6 lf 996,5 hPa 0,0 l/m 0 min 0 min 0 W/m 25,1 km/h (4 Bft) 93,62 %
05.03.2017 03:06 6,6 C 6,7 C 5,0 C 95 % 5 lf 996,4 hPa 0,0 l/m 0 min 0 min 0 W/m 18,8 km/h (3 Bft) 95,65 %
05.03.2017 03:08 6,6 C 6,7 C 5,0 C 95 % 4 lf 996,4 hPa 0,0 l/m 0 min 0 min 0 W/m 23,0 km/h (4 Bft) 93,62 %
05.03.2017 03:10 6,6 C 6,7 C 5,0 C 95 % 3 lf 996,5 hPa 0,0 l/m 0 min 0 min 0 W/m 23,0 km/h (4 Bft) 95,74 %
05.03.2017 03:12 6,6 C 6,7 C 5,0 C 94 % 3 lf 996,5 hPa 0,0 l/m 0 min 0 min 0 W/m 25,1 km/h (4 Bft) 95,74 %
05.03.2017 03:14 6,7 C 6,7 C 5,0 C 95 % 2 lf 996,5 hPa 0,0 l/m 0 min 0 min 0 W/m 27,2 km/h (4 Bft) 93,62 %
05.03.2017 03:16 6,7 C 6,7 C 5,0 C 94 % 1 lf 996,4 hPa 0,0 l/m 0 min 0 min 0 W/m 20,9 km/h (4 Bft) 91,49 %
05.03.2017 03:18 6,7 C 6,7 C 5,0 C 94 % 1 lf 996,5 hPa 0,0 l/m 0 min 0 min 0 W/m 29,3 km/h (5 Bft) 95,65 %
05.03.2017 03:20 6,7 C 6,7 C 5,0 C 94 % 0 lf 996,5 hPa 0,0 l/m 0 min 0 min 0 W/m 20,9 km/h (4 Bft) 100,00 %
05.03.2017 03:22 6,7 C 6,7 C 5,0 C 94 % 0 lf 996,5 hPa 0,0 l/m 0 min 0 min 0 W/m 23,0 km/h (4 Bft) 100,00 %
05.03.2017 03:24 6,8 C 6,7 C 5,0 C 94 % 0 lf 996,5 hPa 0,0 l/m 0 min 0 min 0 W/m 25,1 km/h (4 Bft) 91,49 %
05.03.2017 03:26 6,8 C 6,7 C 5,0 C 94 % 0 lf 996,5 hPa 0,0 l/m 0 min 0 min 0 W/m 18,8 km/h (3 Bft) 97,87 %
05.03.2017 03:28 6,8 C 6,7 C 5,0 C 94 % 0 lf 996,5 hPa 0,0 l/m 0 min 0 min 0 W/m 33,5 km/h (5 Bft) 97,83 %
05.03.2017 03:30 6,8 C 6,7 C 5,0 C 94 % 0 lf 996,5 hPa 0,0 l/m 0 min 0 min 0 W/m 23,0 km/h (4 Bft) 97,87 %
05.03.2017 03:32 6,8 C 6,7 C 5,0 C 94 % 0 lf 996,5 hPa 0,0 l/m 0 min 0 min 0 W/m 23,0 km/h (4 Bft) 93,62 %
05.03.2017 03:34 6,8 C 6,7 C 5,0 C 93 % 0 lf 996,6 hPa 0,0 l/m 0 min 0 min 0 W/m 31,4 km/h (5 Bft) 95,74 %
05.03.2017 03:36 6,8 C 6,7 C 5,0 C 93 % 0 lf 996,5 hPa 0,0 l/m 0 min 0 min 0 W/m 20,9 km/h (4 Bft) 100,00 %
05.03.2017 03:38 6,8 C 6,7 C 5,0 C 93 % 0 lf 996,6 hPa 0,0 l/m 0 min 0 min 0 W/m 25,1 km/h (4 Bft) 95,74 %
05.03.2017 03:40 6,8 C 6,7 C 5,0 C 93 % 0 lf 996,6 hPa 0,0 l/m 0 min 0 min 0 W/m 31,4 km/h (5 Bft) 97,83 %
05.03.2017 03:42 6,8 C 6,7 C 5,0 C 93 % 0 lf 996,6 hPa 0,0 l/m 0 min 0 min 0 W/m 27,2 km/h (4 Bft) 93,62 %
05.03.2017 03:44 6,8 C 6,7 C 5,0 C 93 % 0 lf 996,5 hPa 0,0 l/m 0 min 0 min 0 W/m 18,8 km/h (3 Bft) 97,87 %
05.03.2017 03:46 6,8 C 6,7 C 5,0 C 93 % 0 lf 996,6 hPa 0,0 l/m 0 min 0 min 0 W/m 16,7 km/h (3 Bft) 95,74 %
05.03.2017 03:48 6,8 C 6,7 C 5,0 C 93 % 0 lf 996,5 hPa 0,0 l/m 0 min 0 min 0 W/m 16,7 km/h (3 Bft) 97,87 %
05.03.2017 03:50 6,8 C 6,7 C 5,0 C 93 % 0 lf 996,6 hPa 0,0 l/m 0 min 0 min 0 W/m 18,8 km/h (3 Bft) 95,74 %
05.03.2017 03:52 6,8 C 6,7 C 5,0 C 92 % 0 lf 996,6 hPa 0,0 l/m 0 min 0 min 0 W/m 18,8 km/h (3 Bft) 95,65 %
05.03.2017 03:54 6,8 C 6,7 C 5,0 C 92 % 0 lf 996,6 hPa 0,0 l/m 0 min 0 min 0 W/m 20,9 km/h (4 Bft) 95,74 %
05.03.2017 03:56 6,8 C 6,7 C 5,0 C 92 % 0 lf 996,6 hPa 0,0 l/m 0 min 0 min 0 W/m 25,1 km/h (4 Bft) 95,74 %
05.03.2017 03:58 6,8 C 6,7 C 5,0 C 92 % 0 lf 996,7 hPa 0,0 l/m 0 min 0 min 0 W/m 20,9 km/h (4 Bft) 93,62 %
05.03.2017 04:00 6,8 C 6,7 C 5,0 C 92 % 0 lf 996,6 hPa 0,0 l/m 0 min 0 min 0 W/m 23,0 km/h (4 Bft) 97,87 %
05.03.2017 04:06 6,8 C 6,7 C 5,0 C 92 % 0 lf 996,7 hPa 0,0 l/m 0 min 0 min 0 W/m 23,0 km/h (4 Bft) 95,45 %
05.03.2017 04:08 6,9 C 6,7 C 5,0 C 92 % 0 lf 996,7 hPa 0,0 l/m 0 min 0 min 0 W/m 29,3 km/h (5 Bft) 93,62 %
05.03.2017 04:10 6,9 C 6,7 C 5,6 C 92 % 0 lf 996,8 hPa 0,0 l/m 0 min 0 min 0 W/m 27,2 km/h (4 Bft) 97,87 %
05.03.2017 04:12 6,9 C 6,7 C 5,6 C 92 % 0 lf 996,9 hPa 0,0 l/m 0 min 0 min 0 W/m 23,0 km/h (4 Bft) 93,62 %
05.03.2017 04:14 6,9 C 6,7 C 5,0 C 92 % 0 lf 996,8 hPa 0,0 l/m 0 min 0 min 0 W/m 20,9 km/h (4 Bft) 93,62 %
05.03.2017 04:16 6,9 C 6,7 C 5,0 C 92 % 0 lf 996,9 hPa 0,0 l/m 0 min 0 min 0 W/m 12,6 km/h (3 Bft) 97,83 %
05.03.2017 04:18 6,9 C 6,7 C 5,0 C 92 % 0 lf 996,8 hPa 0,0 l/m 0 min 0 min 0 W/m 27,2 km/h (4 Bft) 97,87 %
05.03.2017 04:20 7,0 C 6,7 C 5,0 C 92 % 0 lf 996,9 hPa 0,0 l/m 0 min 0 min 0 W/m 20,9 km/h (4 Bft) 97,87 %
05.03.2017 04:22 7,0 C 6,7 C 5,6 C 92 % 0 lf 997,0 hPa 0,0 l/m 0 min 0 min 0 W/m 29,3 km/h (5 Bft) 97,87 %
05.03.2017 04:24 7,0 C 6,7 C 5,6 C 92 % 0 lf 997,0 hPa 0,0 l/m 0 min 0 min 0 W/m 41,8 km/h (6 Bft) 97,87 %
05.03.2017 04:26 7,1 C 6,7 C 5,6 C 91 % 0 lf 997,1 hPa 0,0 l/m 0 min 0 min 0 W/m 29,3 km/h (5 Bft) 95,74 %
05.03.2017 04:28 7,1 C 6,7 C 5,6 C 91 % 0 lf 997,1 hPa 0,0 l/m 0 min 0 min 0 W/m 27,2 km/h (4 Bft) 97,83 %
05.03.2017 04:30 7,1 C 6,7 C 5,6 C 91 % 0 lf 997,0 hPa 0,0 l/m 0 min 0 min 0 W/m 27,2 km/h (4 Bft) 93,62 %
05.03.2017 04:32 7,1 C 6,7 C 5,6 C 91 % 0 lf 997,0 hPa 0,0 l/m 0 min 0 min 0 W/m 25,1 km/h (4 Bft) 97,87 %
05.03.2017 04:34 7,1 C 6,7 C 5,6 C 91 % 0 lf 997,1 hPa 0,0 l/m 0 min 0 min 0 W/m 27,2 km/h (4 Bft) 97,87 %
05.03.2017 04:36 7,2 C 6,7 C 5,6 C 91 % 0 lf 997,1 hPa 0,0 l/m 0 min 0 min 0 W/m 27,2 km/h (4 Bft) 91,49 %
05.03.2017 04:38 7,2 C 6,7 C 5,6 C 91 % 1 lf 997,2 hPa 0,0 l/m 0 min 0 min 0 W/m 23,0 km/h (4 Bft) 91,49 %
05.03.2017 04:40 7,2 C 6,7 C 5,6 C 91 % 0 lf 997,2 hPa 0,0 l/m 0 min 0 min 0 W/m 29,3 km/h (5 Bft) 95,65 %
05.03.2017 04:42 7,2 C 6,7 C 5,6 C 90 % 0 lf 997,2 hPa 0,0 l/m 0 min 0 min 0 W/m 25,1 km/h (4 Bft) 91,49 %
05.03.2017 04:44 7,2 C 6,7 C 5,6 C 90 % 0 lf 997,3 hPa 0,0 l/m 0 min 0 min 0 W/m 33,5 km/h (5 Bft) 93,62 %
05.03.2017 04:46 7,2 C 6,7 C 5,6 C 90 % 0 lf 997,4 hPa 0,0 l/m 0 min 0 min 0 W/m 20,9 km/h (4 Bft) 95,74 %
05.03.2017 04:48 7,2 C 6,7 C 5,6 C 90 % 0 lf 997,4 hPa 0,0 l/m 0 min 0 min 0 W/m 23,0 km/h (4 Bft) 95,74 %
05.03.2017 04:50 7,2 C 6,7 C 5,6 C 90 % 0 lf 997,4 hPa 0,0 l/m 0 min 0 min 0 W/m 27,2 km/h (4 Bft) 91,30 %
05.03.2017 04:52 7,2 C 6,7 C 5,6 C 90 % 0 lf 997,4 hPa 0,0 l/m 0 min 0 min 0 W/m 18,8 km/h (3 Bft) 93,62 %
05.03.2017 04:54 7,2 C 6,7 C 5,0 C 90 % 0 lf 997,4 hPa 0,0 l/m 0 min 0 min 0 W/m 20,9 km/h (4 Bft) 89,36 %
05.03.2017 04:56 7,2 C 6,7 C 5,0 C 90 % 0 lf 997,4 hPa 0,0 l/m 0 min 0 min 0 W/m 16,7 km/h (3 Bft) 95,74 %
05.03.2017 04:58 7,2 C 6,7 C 5,0 C 90 % 0 lf 997,4 hPa 0,0 l/m 0 min 0 min 0 W/m 16,7 km/h (3 Bft) 95,74 %
05.03.2017 05:00 7,2 C 6,7 C 5,0 C 90 % 0 lf 997,5 hPa 0,0 l/m 0 min 0 min 0 W/m 20,9 km/h (4 Bft) 95,74 %
05.03.2017 05:02 7,2 C 6,7 C 5,6 C 90 % 0 lf 997,5 hPa 0,0 l/m 0 min 0 min 0 W/m 20,9 km/h (4 Bft) 95,65 %
05.03.2017 05:04 7,2 C 6,7 C 5,0 C 90 % 0 lf 997,5 hPa 0,0 l/m 0 min 0 min 0 W/m 27,2 km/h (4 Bft) 95,74 %
05.03.2017 05:06 7,2 C 6,7 C 5,0 C 90 % 0 lf 997,5 hPa 0,0 l/m 0 min 0 min 0 W/m 29,3 km/h (5 Bft) 95,74 %
05.03.2017 05:08 7,1 C 6,7 C 5,0 C 90 % 0 lf 997,5 hPa 0,0 l/m 0 min 0 min 0 W/m 18,8 km/h (3 Bft) 89,36 %
05.03.2017 05:10 7,1 C 6,7 C 5,0 C 90 % 0 lf 997,6 hPa 0,0 l/m 0 min 0 min 0 W/m 18,8 km/h (3 Bft) 95,74 %
05.03.2017 05:12 7,1 C 6,1 C 5,0 C 90 % 0 lf 997,7 hPa 0,0 l/m 0 min 0 min 0 W/m 18,8 km/h (3 Bft) 89,36 %
05.03.2017 05:14 7,1 C 6,1 C 5,0 C 90 % 0 lf 997,7 hPa 0,0 l/m 0 min 0 min 0 W/m 23,0 km/h (4 Bft) 95,65 %
05.03.2017 05:16 7,1 C 6,7 C 5,0 C 90 % 0 lf 997,7 hPa 0,0 l/m 0 min 0 min 0 W/m 25,1 km/h (4 Bft) 93,62 %
05.03.2017 05:18 7,1 C 6,7 C 5,0 C 90 % 0 lf 997,7 hPa 0,0 l/m 0 min 0 min 0 W/m 27,2 km/h (4 Bft) 95,74 %
05.03.2017 05:20 7,1 C 6,7 C 5,0 C 90 % 0 lf 997,7 hPa 0,0 l/m 0 min 0 min 0 W/m 27,2 km/h (4 Bft) 100,00 %
05.03.2017 05:22 7,1 C 6,7 C 5,0 C 90 % 0 lf 997,7 hPa 0,0 l/m 0 min 0 min 0 W/m 18,8 km/h (3 Bft) 95,74 %
05.03.2017 05:24 7,1 C 6,7 C 5,0 C 90 % 0 lf 997,8 hPa 0,0 l/m 0 min 0 min 0 W/m 18,8 km/h (3 Bft) 93,62 %
05.03.2017 05:26 7,1 C 6,7 C 5,0 C 90 % 0 lf 997,8 hPa 0,0 l/m 0 min 0 min 0 W/m 29,3 km/h (5 Bft) 100,00 %
05.03.2017 05:28 7,1 C 6,7 C 5,0 C 90 % 0 lf 997,8 hPa 0,0 l/m 0 min 0 min 0 W/m 27,2 km/h (4 Bft) 97,87 %
05.03.2017 05:30 7,1 C 6,7 C 5,0 C 90 % 0 lf 997,8 hPa 0,0 l/m 0 min 0 min 0 W/m 20,9 km/h (4 Bft) 91,49 %
05.03.2017 05:32 7,1 C 6,7 C 5,0 C 90 % 0 lf 997,8 hPa 0,0 l/m 0 min 0 min 0 W/m 37,7 km/h (5 Bft) 97,87 %
05.03.2017 05:34 7,1 C 6,7 C 5,0 C 90 % 0 lf 997,8 hPa 0,0 l/m 0 min 0 min 0 W/m 23,0 km/h (4 Bft) 93,62 %
05.03.2017 05:36 7,1 C 6,7 C 5,0 C 90 % 0 lf 997,8 hPa 0,0 l/m 0 min 0 min 0 W/m 25,1 km/h (4 Bft) 89,36 %
05.03.2017 05:38 7,1 C 6,7 C 5,0 C 90 % 0 lf 997,8 hPa 0,0 l/m 0 min 0 min 0 W/m 33,5 km/h (5 Bft) 97,83 %
05.03.2017 05:40 7,1 C 6,7 C 5,0 C 89 % 0 lf 997,9 hPa 0,0 l/m 0 min 0 min 0 W/m 25,1 km/h (4 Bft) 95,74 %
05.03.2017 05:42 7,0 C 7,2 C 5,0 C 89 % 0 lf 997,9 hPa 0,0 l/m 0 min 0 min 0 W/m 35,6 km/h (5 Bft) 95,74 %
05.03.2017 05:44 7,0 C 6,7 C 5,0 C 89 % 0 lf 998,0 hPa 0,0 l/m 0 min 0 min 0 W/m 25,1 km/h (4 Bft) 97,87 %
05.03.2017 05:46 7,0 C 6,7 C 5,0 C 89 % 0 lf 997,9 hPa 0,0 l/m 0 min 0 min 0 W/m 31,4 km/h (5 Bft) 95,74 %
05.03.2017 05:48 7,0 C 6,7 C 5,0 C 89 % 0 lf 998,0 hPa 0,0 l/m 0 min 0 min 0 W/m 31,4 km/h (5 Bft) 95,74 %
05.03.2017 05:50 7,0 C 6,7 C 5,0 C 89 % 0 lf 998,0 hPa 0,0 l/m 0 min 0 min 0 W/m 27,2 km/h (4 Bft) 97,83 %
05.03.2017 05:52 7,0 C 7,2 C 5,0 C 89 % 0 lf 998,0 hPa 0,0 l/m 0 min 0 min 0 W/m 29,3 km/h (5 Bft) 89,36 %
05.03.2017 05:54 6,9 C 6,7 C 5,0 C 89 % 2 lf 998,0 hPa 0,0 l/m 0 min 0 min 0 W/m 18,8 km/h (3 Bft) 97,87 %
05.03.2017 05:56 6,9 C 6,7 C 5,0 C 89 % 1 lf 998,0 hPa 0,0 l/m 0 min 2 min 0 W/m 27,2 km/h (4 Bft) 95,74 %
05.03.2017 05:58 6,9 C 6,7 C 5,0 C 89 % 0 lf 998,0 hPa 0,0 l/m 0 min 0 min 0 W/m 20,9 km/h (4 Bft) 95,74 %
05.03.2017 06:00 6,9 C 6,7 C 5,0 C 89 % 0 lf 998,0 hPa 0,0 l/m 0 min 0 min 0 W/m 25,1 km/h (4 Bft) 97,87 %
05.03.2017 06:02 6,9 C 6,7 C 5,0 C 89 % 0 lf 998,0 hPa 0,0 l/m 0 min 0 min 0 W/m 25,1 km/h (4 Bft) 95,65 %
05.03.2017 06:04 6,9 C 6,7 C 5,0 C 89 % 0 lf 998,1 hPa 0,0 l/m 0 min 0 min 0 W/m 31,4 km/h (5 Bft) 97,96 %
05.03.2017 06:06 6,9 C 7,2 C 5,0 C 89 % 0 lf 998,0 hPa 0,0 l/m 0 min 0 min 0 W/m 27,2 km/h (4 Bft) 95,74 %
05.03.2017 06:08 6,9 C 6,7 C 5,0 C 89 % 0 lf 998,0 hPa 0,0 l/m 0 min 0 min 0 W/m 18,8 km/h (3 Bft) 95,74 %
05.03.2017 06:10 6,9 C 6,7 C 5,0 C 89 % 0 lf 998,1 hPa 0,0 l/m 0 min 0 min 0 W/m 27,2 km/h (4 Bft) 93,62 %
05.03.2017 06:12 6,9 C 6,7 C 5,0 C 89 % 0 lf 998,0 hPa 0,0 l/m 0 min 0 min 0 W/m 20,9 km/h (4 Bft) 97,83 %
05.03.2017 06:14 6,9 C 6,7 C 5,0 C 89 % 0 lf 998,1 hPa 0,0 l/m 0 min 0 min 0 W/m 23,0 km/h (4 Bft) 97,87 %
05.03.2017 06:16 6,8 C 6,7 C 5,0 C 89 % 0 lf 998,1 hPa 0,0 l/m 0 min 0 min 0 W/m 25,1 km/h (4 Bft) 97,87 %
05.03.2017 06:18 6,8 C 6,7 C 5,0 C 89 % 0 lf 998,1 hPa 0,0 l/m 0 min 0 min 0 W/m 16,7 km/h (3 Bft) 95,74 %
05.03.2017 06:20 6,8 C 6,7 C 4,4 C 89 % 0 lf 998,1 hPa 0,0 l/m 0 min 0 min 0 W/m 14,6 km/h (3 Bft) 93,62 %
05.03.2017 06:22 6,8 C 6,7 C 4,4 C 89 % 0 lf 998,1 hPa 0,0 l/m 0 min 0 min 0 W/m 20,9 km/h (4 Bft) 100,00 %
05.03.2017 06:24 6,8 C 6,7 C 5,0 C 90 % 0 lf 998,2 hPa 0,0 l/m 0 min 0 min 0 W/m 27,2 km/h (4 Bft) 97,83 %
05.03.2017 06:26 6,8 C 6,7 C 5,0 C 90 % 0 lf 998,2 hPa 0,0 l/m 0 min 0 min 0 W/m 27,2 km/h (4 Bft) 91,49 %
05.03.2017 06:28 6,8 C 6,7 C 5,0 C 90 % 0 lf 998,2 hPa 0,0 l/m 0 min 0 min 0 W/m 27,2 km/h (4 Bft) 97,87 %
05.03.2017 06:30 6,8 C 6,7 C 5,0 C 90 % 0 lf 998,2 hPa 0,0 l/m 0 min 0 min 0 W/m 23,0 km/h (4 Bft) 97,87 %
05.03.2017 06:32 6,8 C 6,7 C 5,0 C 90 % 0 lf 998,2 hPa 0,0 l/m 0 min 0 min 0 W/m 14,6 km/h (3 Bft) 95,74 %
05.03.2017 06:34 6,8 C 6,7 C 5,0 C 90 % 0 lf 998,3 hPa 0,0 l/m 0 min 0 min 0 W/m 20,9 km/h (4 Bft) 97,87 %
05.03.2017 06:36 6,8 C 6,7 C 5,0 C 90 % 0 lf 998,3 hPa 0,0 l/m 0 min 0 min 0 W/m 23,0 km/h (4 Bft) 97,83 %
05.03.2017 06:38 6,8 C 6,7 C 5,0 C 90 % 0 lf 998,3 hPa 0,0 l/m 0 min 0 min 0 W/m 25,1 km/h (4 Bft) 97,87 %
05.03.2017 06:40 6,7 C 6,7 C 5,0 C 90 % 0 lf 998,3 hPa 0,0 l/m 0 min 0 min 0 W/m 14,6 km/h (3 Bft) 95,74 %
05.03.2017 06:42 6,7 C 6,7 C 5,0 C 90 % 0 lf 998,4 hPa 0,0 l/m 0 min 0 min 0 W/m 18,8 km/h (3 Bft) 91,49 %
05.03.2017 06:44 6,7 C 6,7 C 5,0 C 90 % 0 lf 998,4 hPa 0,0 l/m 0 min 0 min 0 W/m 23,0 km/h (4 Bft) 95,74 %
05.03.2017 06:46 6,7 C 6,7 C 5,0 C 90 % 0 lf 998,4 hPa 0,0 l/m 0 min 0 min 0 W/m 20,9 km/h (4 Bft) 97,87 %
05.03.2017 06:48 6,7 C 7,2 C 5,0 C 90 % 0 lf 998,4 hPa 0,0 l/m 0 min 0 min 0 W/m 27,2 km/h (4 Bft) 95,65 %
05.03.2017 06:50 6,7 C 7,2 C 5,0 C 90 % 0 lf 998,5 hPa 0,0 l/m 0 min 0 min 0 W/m 16,7 km/h (3 Bft) 97,87 %
05.03.2017 06:52 6,7 C 7,2 C 5,0 C 90 % 0 lf 998,5 hPa 0,0 l/m 0 min 0 min 0 W/m 20,9 km/h (4 Bft) 91,49 %
05.03.2017 06:54 6,7 C 7,2 C 5,0 C 90 % 0 lf 998,5 hPa 0,0 l/m 0 min 0 min 0 W/m 20,9 km/h (4 Bft) 97,87 %
05.03.2017 06:56 6,7 C 7,2 C 5,6 C 90 % 0 lf 998,5 hPa 0,0 l/m 0 min 0 min 0 W/m 16,7 km/h (3 Bft) 97,87 %
05.03.2017 06:58 6,8 C 7,2 C 5,6 C 90 % 0 lf 998,6 hPa 0,0 l/m 0 min 0 min 0 W/m 25,1 km/h (4 Bft) 97,83 %
05.03.2017 07:00 6,8 C 7,2 C 5,6 C 90 % 0 lf 998,6 hPa 0,0 l/m 0 min 0 min 0 W/m 25,1 km/h (4 Bft) 93,62 %
05.03.2017 07:02 6,8 C 7,2 C 5,6 C 90 % 0 lf 998,6 hPa 0,0 l/m 0 min 0 min 0 W/m 29,3 km/h (5 Bft) 95,74 %
05.03.2017 07:04 6,8 C 7,2 C 5,6 C 90 % 0 lf 998,7 hPa 0,0 l/m 0 min 0 min 0 W/m 20,9 km/h (4 Bft) 100,00 %
05.03.2017 07:06 6,8 C 7,2 C 5,6 C 90 % 0 lf 998,6 hPa 0,0 l/m 0 min 0 min 0 W/m 27,2 km/h (4 Bft) 100,00 %
05.03.2017 07:08 6,9 C 7,2 C 5,6 C 90 % 0 lf 998,7 hPa 0,0 l/m 0 min 0 min 0 W/m 23,0 km/h (4 Bft) 97,87 %
05.03.2017 07:10 6,9 C 7,2 C 5,6 C 90 % 0 lf 998,7 hPa 0,0 l/m 0 min 0 min 0 W/m 25,1 km/h (4 Bft) 97,83 %
05.03.2017 07:12 6,9 C 7,2 C 5,6 C 90 % 0 lf 998,8 hPa 0,0 l/m 0 min 0 min 0 W/m 27,2 km/h (4 Bft) 95,74 %
05.03.2017 07:14 6,9 C 7,2 C 5,6 C 90 % 0 lf 998,8 hPa 0,0 l/m 0 min 0 min 0 W/m 27,2 km/h (4 Bft) 97,87 %
05.03.2017 07:16 6,9 C 7,2 C 5,6 C 89 % 0 lf 998,8 hPa 0,0 l/m 0 min 0 min 0 W/m 25,1 km/h (4 Bft) 93,62 %
05.03.2017 07:18 7,0 C 7,2 C 5,6 C 89 % 0 lf 998,8 hPa 0,0 l/m 0 min 0 min 2 W/m 27,2 km/h (4 Bft) 93,62 %
05.03.2017 07:20 7,0 C 7,2 C 5,6 C 89 % 0 lf 999,0 hPa 0,0 l/m 0 min 0 min 2 W/m 27,2 km/h (4 Bft) 93,62 %
05.03.2017 07:22 7,0 C 7,2 C 5,6 C 89 % 0 lf 998,9 hPa 0,0 l/m 0 min 0 min 2 W/m 23,0 km/h (4 Bft) 97,83 %
05.03.2017 07:24 7,1 C 7,2 C 5,6 C 89 % 0 lf 998,8 hPa 0,0 l/m 0 min 0 min 3 W/m 33,5 km/h (5 Bft) 93,62 %
05.03.2017 07:26 7,1 C 7,2 C 5,6 C 89 % 0 lf 998,9 hPa 0,0 l/m 0 min 0 min 4 W/m 23,0 km/h (4 Bft) 97,87 %
05.03.2017 07:28 7,1 C 7,2 C 5,6 C 89 % 0 lf 999,0 hPa 0,0 l/m 0 min 0 min 6 W/m 20,9 km/h (4 Bft) 97,87 %
05.03.2017 07:30 7,1 C 7,8 C 5,6 C 89 % 0 lf 998,9 hPa 0,0 l/m 0 min 0 min 7 W/m 18,8 km/h (3 Bft) 95,74 %
05.03.2017 07:32 7,1 C 7,2 C 5,6 C 88 % 0 lf 999,0 hPa 0,0 l/m 0 min 0 min 5 W/m 16,7 km/h (3 Bft) 95,74 %
05.03.2017 07:34 7,1 C 7,2 C 5,6 C 88 % 0 lf 999,0 hPa 0,0 l/m 0 min 0 min 5 W/m 25,1 km/h (4 Bft) 91,30 %
05.03.2017 07:36 7,1 C 7,8 C 5,6 C 88 % 0 lf 999,0 hPa 0,0 l/m 0 min 0 min 8 W/m 23,0 km/h (4 Bft) 95,74 %
05.03.2017 07:38 7,2 C 7,8 C 5,6 C 88 % 0 lf 999,1 hPa 0,0 l/m 0 min 0 min 11 W/m 37,7 km/h (5 Bft) 97,87 %
05.03.2017 07:40 7,2 C 7,8 C 5,6 C 88 % 0 lf 999,1 hPa 0,0 l/m 0 min 0 min 10 W/m 23,0 km/h (4 Bft) 95,74 %
05.03.2017 07:42 7,2 C 7,8 C 5,6 C 88 % 0 lf 999,2 hPa 0,0 l/m 0 min 0 min 10 W/m 27,2 km/h (4 Bft) 95,74 %
05.03.2017 07:44 7,2 C 7,2 C 5,6 C 88 % 0 lf 999,1 hPa 0,0 l/m 0 min 0 min 12 W/m 23,0 km/h (4 Bft) 97,87 %
05.03.2017 07:46 7,2 C 7,2 C 5,6 C 88 % 0 lf 999,1 hPa 0,0 l/m 0 min 0 min 15 W/m 29,3 km/h (5 Bft) 97,83 %
05.03.2017 07:48 7,2 C 7,2 C 5,6 C 88 % 0 lf 999,1 hPa 0,0 l/m 0 min 0 min 15 W/m 20,9 km/h (4 Bft) 95,74 %
05.03.2017 07:50 7,2 C 7,2 C 5,6 C 88 % 0 lf 999,1 hPa 0,0 l/m 0 min 0 min 17 W/m 16,7 km/h (3 Bft) 97,87 %
05.03.2017 07:52 7,2 C 7,2 C 5,6 C 88 % 0 lf 999,2 hPa 0,0 l/m 0 min 0 min 18 W/m 16,7 km/h (3 Bft) 97,87 %
05.03.2017 07:54 7,2 C 7,2 C 5,6 C 88 % 0 lf 999,2 hPa 0,0 l/m 0 min 0 min 24 W/m 16,7 km/h (3 Bft) 100,00 %
05.03.2017 07:56 7,2 C 7,2 C 5,6 C 88 % 0 lf 999,2 hPa 0,0 l/m 0 min 0 min 30 W/m 27,2 km/h (4 Bft) 100,00 %
05.03.2017 07:58 7,2 C 7,2 C 5,6 C 88 % 0 lf 999,2 hPa 0,0 l/m 0 min 0 min 30 W/m 31,4 km/h (5 Bft) 97,83 %
05.03.2017 08:00 7,2 C 7,2 C 5,6 C 88 % 0 lf 999,2 hPa 0,0 l/m 0 min 0 min 27 W/m 27,2 km/h (4 Bft) 97,87 %
05.03.2017 08:02 7,2 C 7,2 C 5,6 C 88 % 0 lf 999,2 hPa 0,0 l/m 0 min 0 min 28 W/m 20,9 km/h (4 Bft) 97,87 %
05.03.2017 08:04 7,1 C 7,2 C 5,6 C 88 % 0 lf 999,3 hPa 0,0 l/m 0 min 0 min 35 W/m 31,4 km/h (5 Bft) 100,00 %
05.03.2017 08:06 7,1 C 7,8 C 5,6 C 87 % 0 lf 999,3 hPa 0,0 l/m 0 min 0 min 43 W/m 23,0 km/h (4 Bft) 100,00 %
05.03.2017 08:08 7,1 C 7,8 C 5,6 C 87 % 0 lf 999,2 hPa 0,0 l/m 0 min 0 min 58 W/m 25,1 km/h (4 Bft) 95,65 %
05.03.2017 08:10 7,1 C 7,8 C 5,6 C 87 % 0 lf 999,2 hPa 0,0 l/m 0 min 0 min 71 W/m 29,3 km/h (5 Bft) 97,87 %
05.03.2017 08:12 7,1 C 7,8 C 5,6 C 88 % 0 lf 999,2 hPa 0,0 l/m 0 min 0 min 73 W/m 18,8 km/h (3 Bft) 97,87 %
05.03.2017 08:14 7,1 C 7,8 C 5,6 C 87 % 0 lf 999,2 hPa 0,0 l/m 2 min 0 min 107 W/m 20,9 km/h (4 Bft) 97,87 %
05.03.2017 08:16 7,1 C 7,8 C 5,6 C 87 % 0 lf 999,2 hPa 0,0 l/m 2 min 0 min 83 W/m 25,1 km/h (4 Bft) 89,36 %
05.03.2017 08:18 7,1 C 7,8 C 5,6 C 87 % 0 lf 999,2 hPa 0,0 l/m 0 min 0 min 72 W/m 25,1 km/h (4 Bft) 97,87 %
05.03.2017 08:20 7,1 C 7,8 C 5,6 C 87 % 0 lf 999,2 hPa 0,0 l/m 0 min 0 min 72 W/m 20,9 km/h (4 Bft) 100,00 %
05.03.2017 08:22 7,1 C 7,8 C 5,6 C 87 % 0 lf 999,2 hPa 0,0 l/m 0 min 0 min 72 W/m 16,7 km/h (3 Bft) 95,74 %
05.03.2017 08:24 7,1 C 7,8 C 5,6 C 87 % 0 lf 999,3 hPa 0,0 l/m 0 min 0 min 79 W/m 16,7 km/h (3 Bft) 93,62 %
05.03.2017 08:26 7,2 C 7,8 C 5,6 C 87 % 0 lf 999,3 hPa 0,0 l/m 0 min 0 min 82 W/m 23,0 km/h (4 Bft) 87,23 %
05.03.2017 08:28 7,2 C 8,3 C 5,6 C 87 % 0 lf 999,3 hPa 0,0 l/m 2 min 0 min 99 W/m 20,9 km/h (4 Bft) 95,74 %
05.03.2017 08:30 7,2 C 8,3 C 6,1 C 87 % 0 lf 999,4 hPa 0,0 l/m 2 min 0 min 150 W/m 29,3 km/h (5 Bft) 95,74 %
05.03.2017 08:32 7,2 C 8,3 C 6,1 C 87 % 0 lf 999,4 hPa 0,0 l/m 2 min 0 min 168 W/m 18,8 km/h (3 Bft) 95,65 %
05.03.2017 08:34 7,2 C 8,9 C 6,1 C 87 % 0 lf 999,4 hPa 0,0 l/m 2 min 0 min 193 W/m 20,9 km/h (4 Bft) 95,74 %
05.03.2017 08:36 7,2 C 9,4 C 6,1 C 87 % 0 lf 999,4 hPa 0,0 l/m 2 min 0 min 214 W/m 25,1 km/h (4 Bft) 93,62 %
05.03.2017 08:38 7,2 C 10,0 C 6,7 C 87 % 0 lf 999,5 hPa 0,0 l/m 2 min 0 min 155 W/m 25,1 km/h (4 Bft) 91,49 %
05.03.2017 08:40 7,3 C 9,4 C 6,7 C 87 % 0 lf 999,5 hPa 0,0 l/m 0 min 0 min 102 W/m 27,2 km/h (4 Bft) 93,62 %
05.03.2017 08:42 7,3 C 8,9 C 6,7 C 87 % 0 lf 999,5 hPa 0,0 l/m 0 min 0 min 103 W/m 18,8 km/h (3 Bft) 91,49 %
05.03.2017 08:44 7,3 C 8,9 C 6,7 C 88 % 0 lf 999,5 hPa 0,0 l/m 0 min 0 min 82 W/m 20,9 km/h (4 Bft) 93,48 %
05.03.2017 08:46 7,4 C 8,3 C 6,7 C 87 % 0 lf 999,5 hPa 0,0 l/m 0 min 0 min 82 W/m 20,9 km/h (4 Bft) 91,49 %
05.03.2017 08:48 7,4 C 8,3 C 6,7 C 87 % 0 lf 999,5 hPa 0,0 l/m 0 min 0 min 101 W/m 29,3 km/h (5 Bft) 93,62 %
05.03.2017 08:50 7,4 C 8,3 C 6,7 C 87 % 0 lf 999,5 hPa 0,0 l/m 0 min 0 min 118 W/m 18,8 km/h (3 Bft) 93,62 %
05.03.2017 08:52 7,4 C 8,3 C 7,2 C 87 % 0 lf 999,6 hPa 0,0 l/m 0 min 0 min 110 W/m 20,9 km/h (4 Bft) 93,62 %
05.03.2017 08:54 7,4 C 8,3 C 6,7 C 87 % 0 lf 999,6 hPa 0,0 l/m 0 min 0 min 102 W/m 27,2 km/h (4 Bft) 91,49 %
05.03.2017 08:56 7,5 C 8,3 C 6,7 C 87 % 0 lf 999,6 hPa 0,0 l/m 0 min 0 min 94 W/m 27,2 km/h (4 Bft) 91,30 %
05.03.2017 08:58 7,5 C 8,3 C 6,7 C 87 % 0 lf 999,6 hPa 0,0 l/m 0 min 0 min 83 W/m 27,2 km/h (4 Bft) 91,49 %
05.03.2017 09:00 7,5 C 8,3 C 6,7 C 86 % 0 lf 999,6 hPa 0,0 l/m 0 min 0 min 89 W/m 37,7 km/h (5 Bft) 95,74 %
05.03.2017 09:02 7,5 C 8,3 C 6,7 C 86 % 0 lf 999,6 hPa 0,0 l/m 0 min 0 min 79 W/m 31,4 km/h (5 Bft) 93,62 %
05.03.2017 09:04 7,4 C 8,3 C 6,1 C 86 % 0 lf 999,6 hPa 0,0 l/m 0 min 0 min 68 W/m 31,4 km/h (5 Bft) 95,74 %
05.03.2017 09:06 7,4 C 8,3 C 6,1 C 85 % 0 lf 999,4 hPa 0,0 l/m 0 min 0 min 84 W/m 37,7 km/h (5 Bft) 95,74 %
05.03.2017 09:08 7,4 C 9,4 C 6,7 C 85 % 0 lf 999,5 hPa 0,0 l/m 2 min 0 min 146 W/m 25,1 km/h (4 Bft) 93,48 %
05.03.2017 09:10 7,4 C 10,0 C 6,7 C 85 % 0 lf 999,4 hPa 0,0 l/m 2 min 0 min 269 W/m 18,8 km/h (3 Bft) 93,62 %
05.03.2017 09:12 7,4 C 11,1 C 7,8 C 85 % 0 lf 999,4 hPa 0,0 l/m 2 min 0 min 269 W/m 31,4 km/h (5 Bft) 95,74 %
05.03.2017 09:14 7,5 C 11,1 C 7,8 C 85 % 0 lf 999,5 hPa 0,0 l/m 2 min 0 min 298 W/m 27,2 km/h (4 Bft) 97,87 %
05.03.2017 09:16 7,5 C 10,6 C 7,8 C 85 % 0 lf 999,3 hPa 0,0 l/m 0 min 0 min 124 W/m 29,3 km/h (5 Bft) 95,74 %
05.03.2017 09:18 7,6 C 11,7 C 8,3 C 85 % 0 lf 999,3 hPa 0,0 l/m 2 min 0 min 226 W/m 25,1 km/h (4 Bft) 97,87 %
05.03.2017 09:20 7,6 C 12,2 C 8,9 C 85 % 0 lf 999,4 hPa 0,0 l/m 2 min 0 min 318 W/m 27,2 km/h (4 Bft) 95,65 %
05.03.2017 09:22 7,7 C 13,3 C 8,9 C 85 % 0 lf 999,3 hPa 0,0 l/m 2 min 0 min 322 W/m 25,1 km/h (4 Bft) 97,87 %
05.03.2017 09:24 7,7 C 12,8 C 9,4 C 85 % 0 lf 999,3 hPa 0,0 l/m 2 min 0 min 304 W/m 16,7 km/h (3 Bft) 100,00 %
05.03.2017 09:26 7,8 C 13,3 C 10,0 C 85 % 0 lf 999,3 hPa 0,0 l/m 2 min 0 min 331 W/m 23,0 km/h (4 Bft) 97,87 %
05.03.2017 09:28 7,9 C 13,3 C 8,9 C 85 % 0 lf 999,2 hPa 0,0 l/m 2 min 0 min 342 W/m 18,8 km/h (3 Bft) 100,00 %
05.03.2017 09:30 8,0 C 13,9 C 8,9 C 85 % 0 lf 999,3 hPa 0,0 l/m 2 min 0 min 330 W/m 31,4 km/h (5 Bft) 95,65 %
05.03.2017 09:32 8,1 C 13,9 C 8,3 C 84 % 0 lf 999,2 hPa 0,0 l/m 2 min 0 min 329 W/m 23,0 km/h (4 Bft) 95,74 %
05.03.2017 09:34 8,1 C 15,6 C 8,3 C 84 % 0 lf 999,2 hPa 0,0 l/m 2 min 0 min 329 W/m 14,6 km/h (3 Bft) 95,74 %
05.03.2017 09:36 8,2 C 15,6 C 8,3 C 84 % 0 lf 999,2 hPa 0,0 l/m 2 min 0 min 334 W/m 23,0 km/h (4 Bft) 97,87 %
05.03.2017 09:38 8,2 C 13,9 C 8,3 C 83 % 0 lf 999,2 hPa 0,0 l/m 2 min 0 min 336 W/m 33,5 km/h (5 Bft) 97,87 %
05.03.2017 09:40 8,2 C 14,4 C 8,3 C 82 % 0 lf 999,2 hPa 0,0 l/m 2 min 0 min 346 W/m 29,3 km/h (5 Bft) 95,74 %
05.03.2017 09:42 8,3 C 15,0 C 8,9 C 82 % 0 lf 999,2 hPa 0,0 l/m 2 min 0 min 351 W/m 18,8 km/h (3 Bft) 100,00 %
05.03.2017 09:44 8,3 C 14,4 C 10,0 C 82 % 0 lf 999,2 hPa 0,0 l/m 2 min 0 min 351 W/m 18,8 km/h (3 Bft) 100,00 %
05.03.2017 09:46 8,4 C 14,4 C 10,0 C 82 % 0 lf 999,3 hPa 0,0 l/m 2 min 0 min 367 W/m 31,4 km/h (5 Bft) 100,00 %
05.03.2017 09:48 8,5 C 13,9 C 10,6 C 81 % 0 lf 999,2 hPa 0,0 l/m 2 min 0 min 361 W/m 25,1 km/h (4 Bft) 95,74 %
05.03.2017 09:50 8,6 C 14,4 C 11,1 C 81 % 0 lf 999,2 hPa 0,0 l/m 2 min 0 min 362 W/m 20,9 km/h (4 Bft) 95,74 %
05.03.2017 09:52 8,7 C 13,9 C 10,6 C 81 % 0 lf 999,2 hPa 0,0 l/m 2 min 0 min 366 W/m 29,3 km/h (5 Bft) 100,00 %
05.03.2017 09:54 8,7 C 14,4 C 10,6 C 80 % 0 lf 999,3 hPa 0,0 l/m 2 min 0 min 370 W/m 27,2 km/h (4 Bft) 100,00 %
05.03.2017 09:56 8,7 C 15,0 C 10,6 C 79 % 0 lf 999,1 hPa 0,0 l/m 2 min 0 min 375 W/m 31,4 km/h (5 Bft) 95,74 %
05.03.2017 09:58 8,7 C 15,0 C 10,6 C 79 % 0 lf 999,0 hPa 0,0 l/m 2 min 0 min 380 W/m 25,1 km/h (4 Bft) 95,74 %
05.03.2017 10:00 8,8 C 14,4 C 11,1 C 79 % 0 lf 999,0 hPa 0,0 l/m 2 min 0 min 387 W/m 20,9 km/h (4 Bft) 97,87 %
05.03.2017 10:02 8,9 C 15,6 C 11,1 C 79 % 0 lf 999,1 hPa 0,0 l/m 2 min 0 min 399 W/m 20,9 km/h (4 Bft) 95,74 %
05.03.2017 10:04 8,9 C 17,2 C 11,7 C 78 % 0 lf 999,0 hPa 0,0 l/m 2 min 0 min 393 W/m 14,6 km/h (3 Bft) 95,74 %
05.03.2017 10:06 9,0 C 16,1 C 11,1 C 78 % 0 lf 999,0 hPa 0,0 l/m 2 min 0 min 399 W/m 25,1 km/h (4 Bft) 95,65 %
05.03.2017 10:08 9,1 C 15,6 C 10,6 C 78 % 0 lf 999,0 hPa 0,0 l/m 2 min 0 min 402 W/m 29,3 km/h (5 Bft) 91,49 %
05.03.2017 10:10 9,1 C 15,0 C 10,6 C 77 % 0 lf 999,0 hPa 0,0 l/m 2 min 0 min 409 W/m 33,5 km/h (5 Bft) 97,87 %
05.03.2017 10:12 9,1 C 15,0 C 10,6 C 77 % 0 lf 999,0 hPa 0,0 l/m 2 min 0 min 412 W/m 37,7 km/h (5 Bft) 93,62 %
05.03.2017 10:14 9,1 C 13,9 C 10,6 C 77 % 0 lf 998,9 hPa 0,0 l/m 2 min 0 min 417 W/m 29,3 km/h (5 Bft) 95,74 %
05.03.2017 10:16 9,2 C 15,6 C 10,0 C 77 % 0 lf 999,0 hPa 0,0 l/m 2 min 0 min 422 W/m 25,1 km/h (4 Bft) 93,62 %
05.03.2017 10:18 9,2 C 16,1 C 9,4 C 76 % 0 lf 998,9 hPa 0,0 l/m 2 min 0 min 430 W/m 29,3 km/h (5 Bft) 95,65 %
05.03.2017 10:20 9,3 C 15,6 C 8,9 C 76 % 0 lf 998,9 hPa 0,0 l/m 2 min 0 min 434 W/m 33,5 km/h (5 Bft) 95,74 %
05.03.2017 10:22 9,3 C 16,1 C 10,0 C 75 % 0 lf 998,8 hPa 0,0 l/m 2 min 0 min 439 W/m 18,8 km/h (3 Bft) 97,87 %
05.03.2017 10:24 9,4 C 14,4 C 10,0 C 75 % 0 lf 998,9 hPa 0,0 l/m 2 min 0 min 444 W/m 37,7 km/h (5 Bft) 97,87 %
05.03.2017 10:26 9,4 C 15,0 C 10,6 C 75 % 0 lf 998,9 hPa 0,0 l/m 2 min 0 min 457 W/m 27,2 km/h (4 Bft) 97,87 %
05.03.2017 10:28 9,5 C 15,6 C 10,6 C 74 % 0 lf 998,8 hPa 0,0 l/m 2 min 0 min 455 W/m 29,3 km/h (5 Bft) 95,74 %
05.03.2017 10:30 9,6 C 15,0 C 10,6 C 74 % 0 lf 998,8 hPa 0,0 l/m 2 min 0 min 440 W/m 27,2 km/h (4 Bft) 97,83 %
05.03.2017 10:32 9,6 C 15,6 C 10,6 C 74 % 0 lf 998,8 hPa 0,0 l/m 2 min 0 min 420 W/m 29,3 km/h (5 Bft) 93,62 %
05.03.2017 10:34 9,7 C 14,4 C 10,6 C 74 % 0 lf 998,8 hPa 0,0 l/m 2 min 0 min 440 W/m 37,7 km/h (5 Bft) 91,49 %
05.03.2017 10:36 9,7 C 15,0 C 10,0 C 73 % 0 lf 998,8 hPa 0,0 l/m 2 min 0 min 380 W/m 35,6 km/h (5 Bft) 95,74 %
05.03.2017 10:38 9,7 C 14,4 C 10,0 C 73 % 0 lf 998,8 hPa 0,0 l/m 2 min 0 min 450 W/m 33,5 km/h (5 Bft) 91,49 %
05.03.2017 10:40 9,7 C 14,4 C 10,0 C 72 % 0 lf 998,9 hPa 0,0 l/m 2 min 0 min 441 W/m 37,7 km/h (5 Bft) 97,83 %
05.03.2017 10:42 9,7 C 14,4 C 10,0 C 72 % 0 lf 998,8 hPa 0,0 l/m 2 min 0 min 424 W/m 31,4 km/h (5 Bft) 95,74 %
05.03.2017 10:44 9,8 C 15,6 C 10,6 C 73 % 0 lf 998,8 hPa 0,0 l/m 2 min 0 min 407 W/m 14,6 km/h (3 Bft) 93,62 %
05.03.2017 10:46 9,8 C 15,6 C 10,6 C 73 % 0 lf 998,8 hPa 0,0 l/m 2 min 0 min 415 W/m 23,0 km/h (4 Bft) 95,74 %
05.03.2017 10:48 9,8 C 13,9 C 10,6 C 73 % 0 lf 998,7 hPa 0,0 l/m 2 min 0 min 408 W/m 33,5 km/h (5 Bft) 100,00 %
05.03.2017 10:50 9,9 C 15,0 C 11,1 C 73 % 0 lf 998,8 hPa 0,0 l/m 2 min 0 min 404 W/m 23,0 km/h (4 Bft) 95,74 %
05.03.2017 10:52 9,9 C 14,4 C 11,1 C 73 % 0 lf 998,7 hPa 0,0 l/m 2 min 0 min 399 W/m 35,6 km/h (5 Bft) 97,83 %
05.03.2017 10:54 9,9 C 14,4 C 11,1 C 73 % 0 lf 998,7 hPa 0,0 l/m 2 min 0 min 378 W/m 31,4 km/h (5 Bft) 97,87 %
05.03.2017 10:56 9,9 C 13,9 C 11,1 C 72 % 0 lf 998,8 hPa 0,0 l/m 2 min 0 min 403 W/m 33,5 km/h (5 Bft) 93,62 %
05.03.2017 10:58 9,9 C 15,0 C 11,1 C 72 % 0 lf 998,8 hPa 0,0 l/m 2 min 0 min 444 W/m 29,3 km/h (5 Bft) 97,87 %
05.03.2017 11:00 9,9 C 15,6 C 11,7 C 72 % 0 lf 998,7 hPa 0,0 l/m 2 min 0 min 464 W/m 25,1 km/h (4 Bft) 100,00 %
05.03.2017 11:02 9,9 C 17,2 C 12,8 C 72 % 0 lf 998,7 hPa 0,0 l/m 2 min 0 min 487 W/m 25,1 km/h (4 Bft) 95,74 %
05.03.2017 11:04 10,0 C 17,2 C 12,8 C 73 % 0 lf 998,7 hPa 0,0 l/m 2 min 0 min 519 W/m 27,2 km/h (4 Bft) 95,65 %
05.03.2017 11:06 10,1 C 16,7 C 13,3 C 73 % 0 lf 998,6 hPa 0,0 l/m 2 min 0 min 507 W/m 18,8 km/h (3 Bft) 91,49 %
05.03.2017 11:08 10,1 C 15,6 C 12,2 C 72 % 0 lf 998,6 hPa 0,0 l/m 2 min 0 min 439 W/m 37,7 km/h (5 Bft) 93,62 %
05.03.2017 11:10 10,2 C 16,1 C 12,8 C 71 % 0 lf 998,6 hPa 0,0 l/m 2 min 0 min 514 W/m 37,7 km/h (5 Bft) 95,74 %
05.03.2017 11:12 10,2 C 14,4 C 12,2 C 70 % 0 lf 998,7 hPa 0,0 l/m 2 min 0 min 539 W/m 35,6 km/h (5 Bft) 95,74 %
05.03.2017 11:14 10,2 C 13,9 C 11,1 C 70 % 0 lf 998,6 hPa 0,0 l/m 2 min 0 min 541 W/m 48,1 km/h (6 Bft) 89,36 %
05.03.2017 11:16 10,2 C 12,2 C 10,0 C 69 % 0 lf 998,7 hPa 0,0 l/m 2 min 0 min 286 W/m 31,4 km/h (5 Bft) 93,48 %
05.03.2017 11:18 10,1 C 13,9 C 10,0 C 69 % 0 lf 998,7 hPa 0,0 l/m 0 min 0 min 198 W/m 31,4 km/h (5 Bft) 93,62 %
05.03.2017 11:20 10,1 C 15,0 C 10,6 C 70 % 0 lf 998,6 hPa 0,0 l/m 2 min 0 min 582 W/m 35,6 km/h (5 Bft) 93,62 %
05.03.2017 11:22 10,1 C 14,4 C 10,6 C 70 % 0 lf 998,6 hPa 0,0 l/m 2 min 0 min 595 W/m 56,5 km/h (7 Bft) 87,23 %
05.03.2017 11:24 10,1 C 15,0 C 10,6 C 69 % 0 lf 998,8 hPa 0,0 l/m 2 min 0 min 612 W/m 35,6 km/h (5 Bft) 91,49 %
05.03.2017 11:26 10,2 C 13,9 C 10,6 C 69 % 0 lf 998,7 hPa 0,0 l/m 0 min 0 min 227 W/m 39,7 km/h (6 Bft) 91,49 %
05.03.2017 11:28 10,2 C 13,3 C 10,6 C 68 % 0 lf 998,6 hPa 0,0 l/m 0 min 0 min 244 W/m 48,1 km/h (6 Bft) 89,13 %
05.03.2017 11:30 10,2 C 14,4 C 10,6 C 68 % 0 lf 998,7 hPa 0,0 l/m 2 min 0 min 573 W/m 35,6 km/h (5 Bft) 95,74 %
05.03.2017 11:32 10,3 C 16,1 C 11,1 C 69 % 0 lf 998,5 hPa 0,0 l/m 2 min 0 min 641 W/m 27,2 km/h (4 Bft) 89,36 %
05.03.2017 11:34 10,3 C 16,1 C 11,7 C 69 % 0 lf 998,6 hPa 0,0 l/m 2 min 0 min 627 W/m 27,2 km/h (4 Bft) 93,62 %
05.03.2017 11:36 10,4 C 15,0 C 11,7 C 69 % 0 lf 998,6 hPa 0,0 l/m 2 min 0 min 593 W/m 46,0 km/h (6 Bft) 91,49 %
05.03.2017 11:38 10,5 C 15,0 C 11,7 C 68 % 0 lf 998,5 hPa 0,0 l/m 2 min 0 min 600 W/m 31,4 km/h (5 Bft) 93,62 %
05.03.2017 11:40 10,5 C 13,9 C 11,1 C 68 % 0 lf 998,6 hPa 0,0 l/m 2 min 0 min 307 W/m 31,4 km/h (5 Bft) 95,65 %
05.03.2017 11:42 10,5 C 12,8 C 10,6 C 68 % 0 lf 998,6 hPa 0,0 l/m 0 min 0 min 232 W/m 37,7 km/h (5 Bft) 93,62 %
05.03.2017 11:44 10,5 C 12,2 C 10,6 C 67 % 0 lf 998,5 hPa 0,0 l/m 0 min 0 min 210 W/m 35,6 km/h (5 Bft) 93,62 %
05.03.2017 11:46 10,4 C 12,8 C 10,6 C 68 % 0 lf 998,5 hPa 0,0 l/m 2 min 0 min 267 W/m 29,3 km/h (5 Bft) 93,62 %
05.03.2017 11:48 10,4 C 12,2 C 10,6 C 68 % 0 lf 998,5 hPa 0,0 l/m 2 min 0 min 264 W/m 33,5 km/h (5 Bft) 89,36 %
05.03.2017 11:50 10,4 C 12,8 C 10,6 C 68 % 0 lf 998,5 hPa 0,0 l/m 0 min 0 min 213 W/m 14,6 km/h (3 Bft) 97,87 %
05.03.2017 11:52 10,4 C 15,0 C 11,7 C 68 % 0 lf 998,4 hPa 0,0 l/m 2 min 0 min 397 W/m 35,6 km/h (5 Bft) 95,65 %
05.03.2017 11:54 10,5 C 16,1 C 12,2 C 67 % 0 lf 998,5 hPa 0,0 l/m 2 min 0 min 683 W/m 39,7 km/h (6 Bft) 97,87 %
05.03.2017 11:56 10,6 C 14,4 C 11,7 C 66 % 0 lf 998,5 hPa 0,0 l/m 2 min 0 min 393 W/m 39,7 km/h (6 Bft) 89,36 %
05.03.2017 11:58 10,6 C 13,9 C 11,1 C 65 % 0 lf 998,4 hPa 0,0 l/m 0 min 0 min 225 W/m 33,5 km/h (5 Bft) 97,87 %
05.03.2017 12:00 10,6 C 14,4 C 10,6 C 66 % 0 lf 998,4 hPa 0,0 l/m 2 min 0 min 374 W/m 29,3 km/h (5 Bft) 97,87 %
05.03.2017 12:02 10,6 C 15,0 C 10,6 C 66 % 0 lf 998,4 hPa 0,0 l/m 2 min 0 min 543 W/m 33,5 km/h (5 Bft) 97,83 %
05.03.2017 12:04 10,6 C 16,1 C 10,6 C 66 % 0 lf 998,3 hPa 0,0 l/m 2 min 0 min 625 W/m 37,7 km/h (5 Bft) 95,92 %
05.03.2017 12:06 10,6 C 15,6 C 11,1 C 67 % 0 lf 998,4 hPa 0,0 l/m 2 min 0 min 662 W/m 43,9 km/h (6 Bft) 100,00 %
05.03.2017 12:08 10,7 C 13,9 C 11,7 C 67 % 0 lf 998,4 hPa 0,0 l/m 2 min 0 min 667 W/m 37,7 km/h (5 Bft) 93,62 %
05.03.2017 12:10 10,7 C 12,8 C 11,1 C 66 % 0 lf 998,4 hPa 0,0 l/m 2 min 0 min 321 W/m 39,7 km/h (6 Bft) 97,87 %
05.03.2017 12:12 10,7 C 15,0 C 11,1 C 66 % 0 lf 998,4 hPa 0,0 l/m 2 min 0 min 429 W/m 33,5 km/h (5 Bft) 95,74 %
05.03.2017 12:14 10,8 C 15,0 C 11,7 C 66 % 0 lf 998,3 hPa 0,0 l/m 2 min 0 min 611 W/m 35,6 km/h (5 Bft) 100,00 %
05.03.2017 12:16 10,8 C 15,0 C 11,7 C 66 % 0 lf 998,3 hPa 0,0 l/m 2 min 0 min 619 W/m 37,7 km/h (5 Bft) 97,87 %
05.03.2017 12:18 10,8 C 13,3 C 11,1 C 65 % 0 lf 998,3 hPa 0,0 l/m 0 min 0 min 263 W/m 39,7 km/h (6 Bft) 100,00 %
05.03.2017 12:20 10,8 C 14,4 C 11,1 C 65 % 0 lf 998,3 hPa 0,0 l/m 2 min 0 min 364 W/m 33,5 km/h (5 Bft) 100,00 %
05.03.2017 12:22 10,8 C 15,0 C 11,1 C 66 % 0 lf 998,3 hPa 0,0 l/m 2 min 0 min 661 W/m 31,4 km/h (5 Bft) 100,00 %
05.03.2017 12:24 10,9 C 15,6 C 11,1 C 66 % 0 lf 998,3 hPa 0,0 l/m 2 min 0 min 526 W/m 27,2 km/h (4 Bft) 97,87 %
05.03.2017 12:26 10,9 C 15,6 C 10,6 C 65 % 0 lf 998,3 hPa 0,0 l/m 2 min 0 min 531 W/m 43,9 km/h (6 Bft) 100,00 %
05.03.2017 12:28 10,9 C 16,1 C 10,6 C 65 % 0 lf 998,2 hPa 0,0 l/m 2 min 0 min 633 W/m 46,0 km/h (6 Bft) 97,87 %
05.03.2017 12:30 10,9 C 15,6 C 10,6 C 65 % 0 lf 998,1 hPa 0,0 l/m 2 min 0 min 579 W/m 35,6 km/h (5 Bft) 100,00 %
05.03.2017 12:32 11,0 C 15,6 C 10,6 C 65 % 0 lf 998,0 hPa 0,0 l/m 2 min 0 min 579 W/m 35,6 km/h (5 Bft) 97,87 %
05.03.2017 12:34 11,0 C 16,7 C 10,6 C 65 % 0 lf 998,1 hPa 0,0 l/m 2 min 0 min 579 W/m 37,7 km/h (5 Bft) 100,00 %
05.03.2017 12:36 11,1 C 16,7 C 10,6 C 64 % 0 lf 998,1 hPa 0,0 l/m 2 min 0 min 580 W/m 33,5 km/h (5 Bft) 97,87 %
05.03.2017 12:38 11,1 C 16,7 C 11,1 C 64 % 0 lf 998,1 hPa 0,0 l/m 2 min 0 min 580 W/m 37,7 km/h (5 Bft) 95,65 %
05.03.2017 12:40 11,2 C 16,7 C 11,1 C 63 % 0 lf 998,1 hPa 0,0 l/m 2 min 0 min 580 W/m 37,7 km/h (5 Bft) 93,62 %
05.03.2017 12:42 11,2 C 15,6 C 11,1 C 64 % 0 lf 998,0 hPa 0,0 l/m 2 min 0 min 580 W/m 46,0 km/h (6 Bft) 97,87 %
05.03.2017 12:44 11,2 C 16,7 C 11,1 C 63 % 0 lf 998,0 hPa 0,0 l/m 2 min 0 min 580 W/m 27,2 km/h (4 Bft) 97,87 %
05.03.2017 12:46 11,3 C 16,7 C 11,1 C 63 % 0 lf 998,0 hPa 0,0 l/m 2 min 0 min 580 W/m 35,6 km/h (5 Bft) 100,00 %
05.03.2017 12:48 11,3 C 16,7 C 10,6 C 62 % 0 lf 997,9 hPa 0,0 l/m 2 min 0 min 580 W/m 31,4 km/h (5 Bft) 100,00 %
05.03.2017 12:50 11,3 C 16,7 C 10,6 C 62 % 0 lf 998,0 hPa 0,0 l/m 2 min 0 min 580 W/m 43,9 km/h (6 Bft) 100,00 %
05.03.2017 12:52 11,3 C 17,2 C 11,1 C 62 % 0 lf 997,9 hPa 0,0 l/m 2 min 0 min 580 W/m 35,6 km/h (5 Bft) 93,62 %
05.03.2017 12:54 11,4 C 16,7 C 11,1 C 62 % 0 lf 997,8 hPa 0,0 l/m 2 min 0 min 580 W/m 27,2 km/h (4 Bft) 97,87 %
05.03.2017 12:56 11,4 C 16,7 C 11,7 C 63 % 0 lf 997,8 hPa 0,0 l/m 2 min 0 min 580 W/m 39,7 km/h (6 Bft) 100,00 %
05.03.2017 12:58 11,5 C 16,1 C 11,7 C 62 % 0 lf 997,7 hPa 0,0 l/m 2 min 0 min 579 W/m 41,8 km/h (6 Bft) 97,87 %
05.03.2017 13:00 11,6 C 15,0 C 11,7 C 62 % 0 lf 997,7 hPa 0,0 l/m 2 min 0 min 579 W/m 29,3 km/h (5 Bft) 100,00 %
05.03.2017 13:02 11,6 C 14,4 C 11,1 C 61 % 0 lf 997,8 hPa 0,0 l/m 2 min 0 min 609 W/m 33,5 km/h (5 Bft) 97,87 %
05.03.2017 13:04 11,4 C 13,3 C 10,6 C 61 % 0 lf 997,7 hPa 0,0 l/m 2 min 0 min 676 W/m 31,4 km/h (5 Bft) 95,74 %
05.03.2017 13:06 11,4 C 12,8 C 10,6 C 61 % 0 lf 997,8 hPa 0,0 l/m 2 min 0 min 576 W/m 31,4 km/h (5 Bft) 91,49 %
05.03.2017 13:08 11,3 C 12,2 C 10,6 C 61 % 0 lf 997,6 hPa 0,0 l/m 2 min 0 min 531 W/m 20,9 km/h (4 Bft) 97,87 %
05.03.2017 13:10 11,2 C 11,7 C 10,6 C 61 % 0 lf 997,6 hPa 0,0 l/m 2 min 0 min 525 W/m 37,7 km/h (5 Bft) 97,87 %
05.03.2017 13:12 11,1 C 11,7 C 10,6 C 61 % 0 lf 997,6 hPa 0,0 l/m 2 min 0 min 548 W/m 37,7 km/h (5 Bft) 95,65 %
05.03.2017 13:14 11,0 C 11,7 C 10,6 C 61 % 0 lf 997,5 hPa 0,0 l/m 2 min 0 min 561 W/m 43,9 km/h (6 Bft) 97,87 %
05.03.2017 13:16 10,9 C 12,2 C 10,6 C 61 % 0 lf 997,5 hPa 0,0 l/m 2 min 0 min 578 W/m 37,7 km/h (5 Bft) 97,87 %
05.03.2017 13:18 10,8 C 12,8 C 10,6 C 62 % 0 lf 997,4 hPa 0,0 l/m 2 min 0 min 593 W/m 35,6 km/h (5 Bft) 95,74 %
05.03.2017 13:20 10,8 C 13,3 C 10,6 C 62 % 0 lf 997,5 hPa 0,0 l/m 2 min 0 min 606 W/m 35,6 km/h (5 Bft) 97,87 %
05.03.2017 13:22 10,8 C 14,4 C 11,1 C 62 % 0 lf 997,4 hPa 0,0 l/m 2 min 0 min 616 W/m 33,5 km/h (5 Bft) 93,62 %
05.03.2017 13:24 10,8 C 14,4 C 11,7 C 63 % 0 lf 997,4 hPa 0,0 l/m 2 min 0 min 628 W/m 25,1 km/h (4 Bft) 97,83 %
05.03.2017 13:26 10,8 C 12,8 C 11,1 C 63 % 0 lf 997,4 hPa 0,0 l/m 2 min 0 min 625 W/m 43,9 km/h (6 Bft) 91,49 %
05.03.2017 13:28 10,8 C 12,8 C 10,6 C 63 % 0 lf 997,3 hPa 0,0 l/m 2 min 0 min 608 W/m 29,3 km/h (5 Bft) 97,87 %
05.03.2017 13:30 10,8 C 12,8 C 10,6 C 63 % 0 lf 997,3 hPa 0,0 l/m 2 min 0 min 578 W/m 27,2 km/h (4 Bft) 97,87 %
05.03.2017 13:32 10,8 C 13,9 C 11,1 C 64 % 0 lf 997,2 hPa 0,0 l/m 2 min 0 min 568 W/m 20,9 km/h (4 Bft) 97,87 %
05.03.2017 13:34 10,9 C 16,1 C 11,7 C 65 % 0 lf 997,1 hPa 0,0 l/m 2 min 0 min 566 W/m 35,6 km/h (5 Bft) 93,62 %
05.03.2017 13:36 11,0 C 16,7 C 12,2 C 64 % 0 lf 997,1 hPa 0,0 l/m 2 min 0 min 564 W/m 27,2 km/h (4 Bft) 91,30 %
05.03.2017 13:38 11,1 C 16,1 C 11,7 C 63 % 0 lf 997,1 hPa 0,0 l/m 2 min 0 min 563 W/m 35,6 km/h (5 Bft) 91,49 %
05.03.2017 13:40 11,2 C 16,1 C 11,7 C 63 % 0 lf 997,0 hPa 0,0 l/m 2 min 0 min 562 W/m 31,4 km/h (5 Bft) 93,62 %
05.03.2017 13:42 11,3 C 16,7 C 11,1 C 62 % 0 lf 997,0 hPa 0,0 l/m 2 min 0 min 560 W/m 37,7 km/h (5 Bft) 89,36 %
05.03.2017 13:44 11,4 C 17,2 C 11,1 C 61 % 0 lf 997,0 hPa 0,0 l/m 2 min 0 min 559 W/m 27,2 km/h (4 Bft) 93,62 %
05.03.2017 13:46 11,4 C 17,2 C 11,1 C 60 % 0 lf 997,0 hPa 0,0 l/m 2 min 0 min 558 W/m 35,6 km/h (5 Bft) 91,49 %
05.03.2017 13:48 11,6 C 17,2 C 11,1 C 60 % 0 lf 996,9 hPa 0,0 l/m 2 min 0 min 556 W/m 43,9 km/h (6 Bft) 89,13 %
05.03.2017 13:50 11,6 C 17,2 C 11,7 C 60 % 0 lf 997,0 hPa 0,0 l/m 2 min 0 min 554 W/m 35,6 km/h (5 Bft) 93,62 %
05.03.2017 13:52 11,7 C 16,1 C 11,1 C 59 % 0 lf 996,8 hPa 0,0 l/m 2 min 0 min 553 W/m 41,8 km/h (6 Bft) 95,65 %
05.03.2017 13:54 11,7 C 15,0 C 10,6 C 57 % 0 lf 996,7 hPa 0,0 l/m 2 min 0 min 551 W/m 50,2 km/h (7 Bft) 91,49 %
05.03.2017 13:56 11,6 C 13,9 C 10,6 C 57 % 0 lf 996,7 hPa 0,0 l/m 2 min 0 min 534 W/m 29,3 km/h (5 Bft) 93,62 %
05.03.2017 13:58 11,6 C 13,9 C 10,6 C 57 % 0 lf 996,6 hPa 0,0 l/m 2 min 0 min 477 W/m 27,2 km/h (4 Bft) 89,36 %
05.03.2017 14:00 11,5 C 15,0 C 10,6 C 57 % 0 lf 996,7 hPa 0,0 l/m 0 min 0 min 222 W/m 39,7 km/h (6 Bft) 93,48 %
05.03.2017 14:02 11,4 C 16,1 C 10,6 C 57 % 0 lf 996,6 hPa 0,0 l/m 0 min 0 min 222 W/m 35,6 km/h (5 Bft) 91,49 %
05.03.2017 14:04 11,5 C 15,6 C 11,1 C 59 % 0 lf 996,6 hPa 0,0 l/m 0 min 0 min 222 W/m 27,2 km/h (4 Bft) 91,49 %
05.03.2017 14:06 11,5 C 15,0 C 11,1 C 58 % 0 lf 996,6 hPa 0,0 l/m 0 min 0 min 222 W/m 33,5 km/h (5 Bft) 93,62 %
05.03.2017 14:08 11,5 C 12,8 C 10,6 C 58 % 0 lf 996,6 hPa 0,0 l/m 0 min 0 min 222 W/m 27,2 km/h (4 Bft) 93,62 %
05.03.2017 14:10 11,4 C 12,2 C 10,6 C 58 % 0 lf 996,6 hPa 0,0 l/m 0 min 0 min 222 W/m 31,4 km/h (5 Bft) 93,48 %
05.03.2017 14:12 11,3 C 12,2 C 10,6 C 58 % 0 lf 996,6 hPa 0,0 l/m 0 min 0 min 222 W/m 29,3 km/h (5 Bft) 87,23 %
05.03.2017 14:14 11,3 C 11,7 C 10,6 C 59 % 0 lf 996,6 hPa 0,0 l/m 0 min 0 min 222 W/m 25,1 km/h (4 Bft) 91,49 %
05.03.2017 14:16 11,2 C 11,7 C 10,6 C 59 % 0 lf 996,5 hPa 0,0 l/m 0 min 0 min 222 W/m 29,3 km/h (5 Bft) 91,49 %
05.03.2017 14:18 11,2 C 11,7 C 10,6 C 59 % 0 lf 996,4 hPa 0,0 l/m 0 min 0 min 222 W/m 29,3 km/h (5 Bft) 93,62 %
05.03.2017 14:20 11,1 C 11,7 C 10,0 C 60 % 0 lf 996,5 hPa 0,0 l/m 0 min 0 min 222 W/m 23,0 km/h (4 Bft) 95,74 %
05.03.2017 14:22 11,0 C 11,1 C 10,0 C 59 % 0 lf 996,4 hPa 0,0 l/m 0 min 0 min 222 W/m 37,7 km/h (5 Bft) 95,65 %
05.03.2017 14:24 10,9 C 11,1 C 10,0 C 60 % 0 lf 996,3 hPa 0,0 l/m 0 min 0 min 222 W/m 33,5 km/h (5 Bft) 93,62 %
05.03.2017 14:26 10,9 C 11,1 C 10,0 C 60 % 0 lf 996,4 hPa 0,0 l/m 0 min 0 min 222 W/m 43,9 km/h (6 Bft) 97,87 %
05.03.2017 14:28 10,8 C 11,1 C 10,0 C 60 % 0 lf 996,3 hPa 0,0 l/m 0 min 0 min 222 W/m 37,7 km/h (5 Bft) 95,74 %
05.03.2017 14:30 10,8 C 11,1 C 10,0 C 60 % 0 lf 996,2 hPa 0,0 l/m 0 min 0 min 222 W/m 25,1 km/h (4 Bft) 97,87 %
05.03.2017 14:32 10,7 C 11,1 C 10,0 C 60 % 0 lf 996,3 hPa 0,0 l/m 0 min 0 min 222 W/m 37,7 km/h (5 Bft) 93,62 %
05.03.2017 14:34 10,7 C 11,7 C 10,0 C 60 % 0 lf 996,0 hPa 0,0 l/m 0 min 0 min 222 W/m 37,7 km/h (5 Bft) 97,83 %
05.03.2017 14:36 10,7 C 11,7 C 10,0 C 60 % 0 lf 996,0 hPa 0,0 l/m 0 min 0 min 222 W/m 33,5 km/h (5 Bft) 97,87 %
05.03.2017 14:38 10,6 C 11,7 C 10,0 C 60 % 0 lf 995,9 hPa 0,0 l/m 0 min 0 min 222 W/m 27,2 km/h (4 Bft) 97,87 %
05.03.2017 14:40 10,6 C 11,7 C 10,6 C 60 % 0 lf 995,8 hPa 0,0 l/m 0 min 0 min 222 W/m 27,2 km/h (4 Bft) 93,62 %
05.03.2017 14:42 10,6 C 11,7 C 10,6 C 60 % 0 lf 995,8 hPa 0,0 l/m 0 min 0 min 222 W/m 33,5 km/h (5 Bft) 97,87 %
05.03.2017 14:44 10,6 C 11,7 C 10,6 C 61 % 0 lf 995,7 hPa 0,0 l/m 0 min 0 min 222 W/m 29,3 km/h (5 Bft) 95,74 %
05.03.2017 14:46 10,6 C 11,7 C 10,6 C 61 % 0 lf 995,7 hPa 0,0 l/m 0 min 0 min 222 W/m 29,3 km/h (5 Bft) 97,83 %
05.03.2017 14:48 10,6 C 11,1 C 10,6 C 61 % 0 lf 995,7 hPa 0,0 l/m 0 min 0 min 222 W/m 27,2 km/h (4 Bft) 97,87 %
05.03.2017 14:50 10,6 C 11,1 C 10,6 C 61 % 0 lf 995,6 hPa 0,0 l/m 0 min 0 min 222 W/m 33,5 km/h (5 Bft) 100,00 %
05.03.2017 14:52 10,6 C 11,1 C 10,0 C 61 % 0 lf 995,6 hPa 0,0 l/m 0 min 0 min 222 W/m 33,5 km/h (5 Bft) 95,74 %
05.03.2017 14:54 10,6 C 11,1 C 10,0 C 61 % 0 lf 995,6 hPa 0,0 l/m 0 min 0 min 222 W/m 35,6 km/h (5 Bft) 97,87 %
05.03.2017 14:56 10,6 C 11,1 C 10,0 C 61 % 0 lf 995,6 hPa 0,0 l/m 0 min 0 min 111 W/m 23,0 km/h (4 Bft) 95,74 %
05.03.2017 14:58 10,6 C 11,1 C 10,0 C 62 % 0 lf 995,6 hPa 0,0 l/m 0 min 2 min 111 W/m 16,7 km/h (3 Bft) 100,00 %
05.03.2017 15:00 10,6 C 10,6 C 9,4 C 62 % 0 lf 995,7 hPa 0,0 l/m 0 min 2 min 111 W/m 43,9 km/h (6 Bft) 97,87 %
05.03.2017 15:02 10,5 C 10,6 C 9,4 C 61 % 0 lf 995,6 hPa 0,0 l/m 0 min 0 min 111 W/m 31,4 km/h (5 Bft) 100,00 %
05.03.2017 15:04 10,4 C 10,6 C 9,4 C 61 % 0 lf 995,6 hPa 0,0 l/m 0 min 0 min 111 W/m 37,7 km/h (5 Bft) 95,74 %
05.03.2017 15:06 10,4 C 10,0 C 8,9 C 61 % 0 lf 995,6 hPa 0,0 l/m 0 min 2 min 111 W/m 43,9 km/h (6 Bft) 100,00 %
05.03.2017 15:08 10,3 C 9,4 C 8,3 C 62 % 1 lf 995,7 hPa 0,0 l/m 0 min 2 min 111 W/m 35,6 km/h (5 Bft) 97,87 %
05.03.2017 15:10 10,2 C 9,4 C 7,8 C 63 % 1 lf 995,8 hPa 0,0 l/m 0 min 2 min 111 W/m 37,7 km/h (5 Bft) 100,00 %
05.03.2017 15:12 10,1 C 9,4 C 7,8 C 63 % 0 lf 995,7 hPa 0,0 l/m 0 min 2 min 111 W/m 27,2 km/h (4 Bft) 100,00 %
05.03.2017 15:14 10,0 C 9,4 C 7,8 C 64 % 2 lf 995,7 hPa 0,0 l/m 0 min 2 min 111 W/m 31,4 km/h (5 Bft) 97,87 %
05.03.2017 15:16 9,9 C 9,4 C 7,8 C 64 % 1 lf 995,7 hPa 0,0 l/m 0 min 2 min 111 W/m 37,7 km/h (5 Bft) 100,00 %
05.03.2017 15:18 9,9 C 8,9 C 7,2 C 65 % 3 lf 995,6 hPa 0,0 l/m 0 min 2 min 111 W/m 31,4 km/h (5 Bft) 100,00 %
05.03.2017 15:20 9,8 C 8,3 C 7,2 C 66 % 0 lf 995,6 hPa 0,0 l/m 0 min 2 min 111 W/m 37,7 km/h (5 Bft) 100,00 %
05.03.2017 15:22 9,7 C 8,9 C 7,2 C 67 % 1 lf 995,6 hPa 0,0 l/m 0 min 2 min 111 W/m 31,4 km/h (5 Bft) 100,00 %
05.03.2017 15:24 9,7 C 8,9 C 7,2 C 67 % 0 lf 995,6 hPa 0,0 l/m 0 min 2 min 111 W/m 23,0 km/h (4 Bft) 97,87 %
05.03.2017 15:26 9,6 C 8,9 C 7,2 C 68 % 1 lf 995,6 hPa 0,0 l/m 0 min 2 min 111 W/m 35,6 km/h (5 Bft) 95,74 %
05.03.2017 15:28 9,5 C 8,9 C 7,2 C 68 % 2 lf 995,7 hPa 0,0 l/m 0 min 2 min 111 W/m 39,7 km/h (6 Bft) 95,74 %
05.03.2017 15:30 9,4 C 8,3 C 6,7 C 69 % 3 lf 995,6 hPa 0,0 l/m 0 min 2 min 111 W/m 35,6 km/h (5 Bft) 100,00 %
05.03.2017 15:32 9,4 C 7,8 C 6,7 C 69 % 6 lf 995,5 hPa 0,0 l/m 0 min 2 min 101 W/m 39,7 km/h (6 Bft) 97,83 %
05.03.2017 15:34 9,3 C 7,2 C 6,1 C 70 % 5 lf 995,6 hPa 0,0 l/m 0 min 2 min 90 W/m 35,6 km/h (5 Bft) 97,87 %
05.03.2017 15:36 9,2 C 7,2 C 5,6 C 71 % 5 lf 995,7 hPa 0,0 l/m 0 min 2 min 90 W/m 29,3 km/h (5 Bft) 97,87 %
05.03.2017 15:38 9,1 C 7,2 C 5,6 C 72 % 4 lf 995,7 hPa 0,0 l/m 0 min 2 min 89 W/m 35,6 km/h (5 Bft) 97,87 %
05.03.2017 15:40 8,9 C 6,7 C 5,6 C 73 % 2 lf 995,6 hPa 0,0 l/m 0 min 2 min 89 W/m 31,4 km/h (5 Bft) 95,74 %
05.03.2017 15:42 8,9 C 6,7 C 5,0 C 73 % 2 lf 995,7 hPa 0,0 l/m 0 min 2 min 88 W/m 29,3 km/h (5 Bft) 100,00 %
05.03.2017 15:44 8,7 C 6,1 C 5,0 C 74 % 4 lf 995,7 hPa 0,0 l/m 0 min 2 min 88 W/m 31,4 km/h (5 Bft) 97,83 %
05.03.2017 15:46 8,7 C 6,1 C 5,0 C 76 % 4 lf 995,7 hPa 0,0 l/m 0 min 2 min 87 W/m 25,1 km/h (4 Bft) 100,00 %
05.03.2017 15:48 8,6 C 6,1 C 5,0 C 76 % 3 lf 995,8 hPa 0,2 l/m 0 min 2 min 86 W/m 27,2 km/h (4 Bft) 95,74 %
05.03.2017 15:50 8,4 C 6,1 C 5,0 C 77 % 6 lf 995,7 hPa 0,0 l/m 0 min 2 min 77 W/m 33,5 km/h (5 Bft) 95,74 %
05.03.2017 15:52 8,3 C 6,1 C 5,0 C 78 % 3 lf 995,7 hPa 0,0 l/m 0 min 2 min 77 W/m 39,7 km/h (6 Bft) 97,87 %
05.03.2017 15:54 8,2 C 6,1 C 5,0 C 79 % 10 lf 995,7 hPa 0,2 l/m 0 min 2 min 77 W/m 23,0 km/h (4 Bft) 97,87 %
05.03.2017 15:56 8,1 C 5,6 C 5,0 C 79 % 12 lf 995,7 hPa 0,0 l/m 0 min 2 min 77 W/m 31,4 km/h (5 Bft) 100,00 %
05.03.2017 15:58 8,1 C 6,1 C 5,0 C 80 % 14 lf 995,7 hPa 0,0 l/m 0 min 2 min 77 W/m 16,7 km/h (3 Bft) 95,74 %
05.03.2017 16:00 8,0 C 6,1 C 5,0 C 81 % 15 lf 995,7 hPa 0,2 l/m 0 min 2 min 77 W/m 16,7 km/h (3 Bft) 97,87 %
05.03.2017 16:02 7,9 C 6,1 C 5,0 C 81 % 15 lf 995,7 hPa 0,0 l/m 0 min 2 min 66 W/m 12,6 km/h (3 Bft) 93,62 %
05.03.2017 16:04 7,9 C 6,1 C 5,0 C 82 % 15 lf 995,7 hPa 0,2 l/m 0 min 2 min 66 W/m 23,0 km/h (4 Bft) 93,62 %
05.03.2017 16:06 7,8 C 6,1 C 5,0 C 83 % 15 lf 995,6 hPa 0,0 l/m 0 min 2 min 66 W/m 27,2 km/h (4 Bft) 93,62 %
05.03.2017 16:08 7,8 C 6,1 C 5,0 C 83 % 15 lf 995,7 hPa 0,0 l/m 0 min 2 min 66 W/m 20,9 km/h (4 Bft) 95,65 %
05.03.2017 16:10 7,7 C 6,1 C 5,0 C 84 % 15 lf 995,6 hPa 0,2 l/m 0 min 2 min 36 W/m 25,1 km/h (4 Bft) 91,49 %
05.03.2017 16:12 7,6 C 5,6 C 5,0 C 84 % 15 lf 995,5 hPa 0,0 l/m 0 min 2 min 31 W/m 37,7 km/h (5 Bft) 95,74 %
05.03.2017 16:14 7,6 C 6,1 C 5,0 C 84 % 15 lf 995,5 hPa 0,2 l/m 0 min 2 min 30 W/m 27,2 km/h (4 Bft) 93,62 %
05.03.2017 16:16 7,4 C 5,6 C 5,0 C 85 % 15 lf 995,5 hPa 0,0 l/m 0 min 2 min 31 W/m 29,3 km/h (5 Bft) 95,74 %
05.03.2017 16:18 7,4 C 6,1 C 5,0 C 85 % 15 lf 995,5 hPa 0,0 l/m 0 min 2 min 26 W/m 14,6 km/h (3 Bft) 95,74 %
05.03.2017 16:20 7,3 C 6,1 C 5,0 C 85 % 15 lf 995,5 hPa 0,0 l/m 0 min 2 min 24 W/m 18,8 km/h (3 Bft) 97,83 %
05.03.2017 16:22 7,3 C 6,1 C 5,0 C 86 % 15 lf 995,6 hPa 0,0 l/m 0 min 2 min 23 W/m 20,9 km/h (4 Bft) 97,87 %
05.03.2017 16:24 7,3 C 6,1 C 5,0 C 86 % 15 lf 995,5 hPa 0,2 l/m 0 min 2 min 24 W/m 14,6 km/h (3 Bft) 97,87 %
05.03.2017 16:26 7,2 C 6,1 C 5,0 C 87 % 15 lf 995,5 hPa 0,0 l/m 0 min 2 min 23 W/m 14,6 km/h (3 Bft) 95,74 %
05.03.2017 16:28 7,2 C 6,1 C 5,0 C 87 % 15 lf 995,5 hPa 0,0 l/m 0 min 2 min 23 W/m 25,1 km/h (4 Bft) 93,62 %
05.03.2017 16:30 7,1 C 6,1 C 5,0 C 87 % 15 lf 995,6 hPa 0,2 l/m 0 min 2 min 27 W/m 18,8 km/h (3 Bft) 93,48 %
05.03.2017 16:32 7,1 C 6,1 C 5,0 C 87 % 15 lf 995,5 hPa 0,0 l/m 0 min 2 min 29 W/m 8,4 km/h (2 Bft) 97,87 %
05.03.2017 16:34 7,1 C 6,1 C 5,0 C 88 % 15 lf 995,5 hPa 0,0 l/m 0 min 2 min 31 W/m 16,7 km/h (3 Bft) 97,87 %
05.03.2017 16:36 7,1 C 6,1 C 5,0 C 88 % 15 lf 995,5 hPa 0,0 l/m 0 min 2 min 27 W/m 18,8 km/h (3 Bft) 93,62 %
05.03.2017 16:38 7,0 C 6,1 C 5,0 C 88 % 15 lf 995,5 hPa 0,0 l/m 0 min 2 min 26 W/m 14,6 km/h (3 Bft) 97,87 %
05.03.2017 16:40 7,0 C 6,1 C 5,0 C 88 % 15 lf 995,4 hPa 0,0 l/m 0 min 2 min 28 W/m 14,6 km/h (3 Bft) 95,74 %
05.03.2017 16:42 7,0 C 6,1 C 5,0 C 89 % 14 lf 995,5 hPa 0,2 l/m 0 min 2 min 26 W/m 23,0 km/h (4 Bft) 97,83 %
05.03.2017 16:44 7,0 C 6,1 C 5,0 C 89 % 14 lf 995,5 hPa 0,0 l/m 0 min 2 min 25 W/m 23,0 km/h (4 Bft) 97,87 %
05.03.2017 16:46 6,9 C 6,1 C 5,0 C 89 % 14 lf 995,5 hPa 0,0 l/m 0 min 2 min 28 W/m 27,2 km/h (4 Bft) 95,74 %
05.03.2017 16:48 6,9 C 6,1 C 5,0 C 89 % 15 lf 995,4 hPa 0,0 l/m 0 min 2 min 27 W/m 20,9 km/h (4 Bft) 93,62 %
05.03.2017 16:50 6,9 C 6,1 C 5,0 C 89 % 15 lf 995,5 hPa 0,0 l/m 0 min 2 min 24 W/m 16,7 km/h (3 Bft) 97,87 %
05.03.2017 16:52 6,9 C 6,1 C 5,0 C 89 % 14 lf 995,4 hPa 0,2 l/m 0 min 2 min 18 W/m 20,9 km/h (4 Bft) 95,74 %
05.03.2017 16:54 6,9 C 6,1 C 5,0 C 89 % 14 lf 995,4 hPa 0,0 l/m 0 min 2 min 17 W/m 18,8 km/h (3 Bft) 95,65 %
05.03.2017 16:56 6,9 C 6,1 C 5,0 C 89 % 14 lf 995,4 hPa 0,0 l/m 0 min 2 min 17 W/m 14,6 km/h (3 Bft) 95,74 %
05.03.2017 16:58 6,9 C 6,1 C 5,0 C 89 % 14 lf 995,5 hPa 0,0 l/m 0 min 2 min 16 W/m 20,9 km/h (4 Bft) 97,87 %
05.03.2017 17:00 6,9 C 6,1 C 5,0 C 89 % 13 lf 995,4 hPa 0,0 l/m 0 min 2 min 18 W/m 27,2 km/h (4 Bft) 97,87 %
05.03.2017 17:02 6,9 C 6,1 C 5,0 C 89 % 13 lf 995,4 hPa 0,0 l/m 0 min 2 min 22 W/m 20,9 km/h (4 Bft) 93,62 %
05.03.2017 17:04 6,9 C 6,1 C 5,0 C 89 % 12 lf 995,4 hPa 0,0 l/m 0 min 2 min 18 W/m 18,8 km/h (3 Bft) 100,00 %
05.03.2017 17:06 6,8 C 6,1 C 5,0 C 89 % 11 lf 995,4 hPa 0,0 l/m 0 min 2 min 17 W/m 23,0 km/h (4 Bft) 97,83 %
05.03.2017 17:08 6,8 C 6,1 C 5,0 C 90 % 10 lf 995,4 hPa 0,0 l/m 0 min 2 min 21 W/m 20,9 km/h (4 Bft) 95,74 %
05.03.2017 17:10 6,8 C 6,1 C 5,0 C 90 % 8 lf 995,4 hPa 0,0 l/m 0 min 2 min 24 W/m 20,9 km/h (4 Bft) 97,87 %
05.03.2017 17:12 6,8 C 6,1 C 5,0 C 90 % 6 lf 995,4 hPa 0,2 l/m 0 min 2 min 21 W/m 14,6 km/h (3 Bft) 93,62 %
05.03.2017 17:14 6,8 C 6,1 C 5,0 C 90 % 5 lf 995,3 hPa 0,0 l/m 0 min 2 min 19 W/m 16,7 km/h (3 Bft) 95,74 %
05.03.2017 17:16 6,8 C 6,1 C 5,0 C 90 % 4 lf 995,3 hPa 0,0 l/m 0 min 2 min 20 W/m 27,2 km/h (4 Bft) 93,62 %
05.03.2017 17:18 6,8 C 6,1 C 5,0 C 90 % 4 lf 995,2 hPa 0,0 l/m 0 min 2 min 23 W/m 29,3 km/h (5 Bft) 93,48 %
05.03.2017 17:20 6,8 C 6,1 C 5,0 C 90 % 7 lf 995,1 hPa 0,2 l/m 0 min 2 min 23 W/m 25,1 km/h (4 Bft) 93,62 %
05.03.2017 17:22 6,8 C 5,6 C 5,0 C 90 % 8 lf 995,1 hPa 0,0 l/m 0 min 2 min 22 W/m 35,6 km/h (5 Bft) 95,74 %
05.03.2017 17:24 6,7 C 6,1 C 5,0 C 90 % 7 lf 995,2 hPa 0,0 l/m 0 min 2 min 19 W/m 20,9 km/h (4 Bft) 95,74 %
05.03.2017 17:26 6,7 C 6,1 C 5,0 C 90 % 6 lf 995,2 hPa 0,0 l/m 0 min 2 min 18 W/m 23,0 km/h (4 Bft) 89,36 %
05.03.2017 17:28 6,7 C 5,6 C 5,0 C 90 % 4 lf 995,2 hPa 0,0 l/m 0 min 2 min 17 W/m 35,6 km/h (5 Bft) 85,11 %
05.03.2017 17:30 6,7 C 6,1 C 5,0 C 90 % 4 lf 995,2 hPa 0,0 l/m 0 min 2 min 18 W/m 20,9 km/h (4 Bft) 95,65 %
05.03.2017 17:32 6,7 C 6,1 C 5,0 C 90 % 4 lf 995,2 hPa 0,0 l/m 0 min 2 min 14 W/m 23,0 km/h (4 Bft) 95,74 %
05.03.2017 17:34 6,7 C 5,6 C 4,4 C 90 % 7 lf 995,2 hPa 0,0 l/m 0 min 2 min 13 W/m 27,2 km/h (4 Bft) 93,62 %
05.03.2017 17:36 6,7 C 5,6 C 4,4 C 90 % 7 lf 995,2 hPa 0,0 l/m 0 min 2 min 12 W/m 23,0 km/h (4 Bft) 91,49 %
05.03.2017 17:38 6,7 C 5,6 C 4,4 C 91 % 8 lf 995,2 hPa 0,0 l/m 0 min 2 min 11 W/m 18,8 km/h (3 Bft) 93,62 %
05.03.2017 17:40 6,7 C 5,6 C 4,4 C 91 % 7 lf 995,2 hPa 0,0 l/m 0 min 2 min 9 W/m 23,0 km/h (4 Bft) 93,62 %
05.03.2017 17:42 6,7 C 5,6 C 4,4 C 91 % 10 lf 995,3 hPa 0,0 l/m 0 min 2 min 9 W/m 14,6 km/h (3 Bft) 93,48 %
05.03.2017 17:44 6,6 C 5,6 C 4,4 C 91 % 10 lf 995,3 hPa 0,0 l/m 0 min 2 min 7 W/m 29,3 km/h (5 Bft) 93,62 %
05.03.2017 17:46 6,6 C 5,6 C 4,4 C 91 % 9 lf 995,3 hPa 0,2 l/m 0 min 2 min 6 W/m 23,0 km/h (4 Bft) 93,62 %
05.03.2017 17:48 6,6 C 5,6 C 4,4 C 91 % 8 lf 995,3 hPa 0,0 l/m 0 min 2 min 5 W/m 33,5 km/h (5 Bft) 95,74 %
05.03.2017 17:50 6,6 C 5,6 C 4,4 C 91 % 10 lf 995,3 hPa 0,2 l/m 0 min 2 min 5 W/m 16,7 km/h (3 Bft) 95,74 %
05.03.2017 17:52 6,6 C 5,6 C 4,4 C 91 % 13 lf 995,3 hPa 0,0 l/m 0 min 2 min 5 W/m 25,1 km/h (4 Bft) 95,65 %
05.03.2017 17:54 6,6 C 5,6 C 4,4 C 91 % 12 lf 995,4 hPa 0,0 l/m 0 min 2 min 5 W/m 35,6 km/h (5 Bft) 95,65 %
05.03.2017 17:56 6,5 C 5,6 C 4,4 C 91 % 11 lf 995,3 hPa 0,0 l/m 0 min 2 min 3 W/m 25,1 km/h (4 Bft) 93,62 %
05.03.2017 17:58 6,5 C 5,6 C 4,4 C 91 % 13 lf 995,4 hPa 0,0 l/m 0 min 2 min 2 W/m 12,6 km/h (3 Bft) 93,62 %
05.03.2017 18:00 6,5 C 5,6 C 4,4 C 91 % 15 lf 995,4 hPa 0,0 l/m 0 min 2 min 3 W/m 25,1 km/h (4 Bft) 93,62 %
05.03.2017 18:02 6,5 C 5,6 C 4,4 C 91 % 15 lf 995,4 hPa 0,2 l/m 0 min 2 min 2 W/m 29,3 km/h (5 Bft) 89,36 %
05.03.2017 18:04 6,4 C 5,6 C 4,4 C 91 % 15 lf 995,4 hPa 0,0 l/m 0 min 2 min 2 W/m 31,4 km/h (5 Bft) 93,62 %
05.03.2017 18:06 6,4 C 5,6 C 4,4 C 91 % 15 lf 995,4 hPa 0,2 l/m 0 min 2 min 1 W/m 18,8 km/h (3 Bft) 95,74 %
05.03.2017 18:08 6,4 C 5,6 C 4,4 C 91 % 15 lf 995,4 hPa 0,0 l/m 0 min 2 min 0 W/m 27,2 km/h (4 Bft) 97,87 %
05.03.2017 18:10 6,4 C 5,6 C 4,4 C 92 % 15 lf 995,5 hPa 0,0 l/m 0 min 2 min 0 W/m 25,1 km/h (4 Bft) 97,87 %
05.03.2017 18:12 6,3 C 5,6 C 4,4 C 92 % 15 lf 995,4 hPa 0,0 l/m 0 min 2 min 0 W/m 27,2 km/h (4 Bft) 95,74 %
05.03.2017 18:14 6,3 C 5,6 C 4,4 C 91 % 15 lf 995,4 hPa 0,2 l/m 0 min 2 min 0 W/m 23,0 km/h (4 Bft) 95,65 %
05.03.2017 18:16 6,3 C 5,6 C 4,4 C 91 % 15 lf 995,5 hPa 0,0 l/m 0 min 2 min 0 W/m 25,1 km/h (4 Bft) 97,87 %
05.03.2017 18:18 6,3 C 5,6 C 4,4 C 91 % 15 lf 995,5 hPa 0,2 l/m 0 min 2 min 0 W/m 27,2 km/h (4 Bft) 97,87 %
05.03.2017 18:20 6,2 C 5,6 C 4,4 C 92 % 15 lf 995,5 hPa 0,0 l/m 0 min 2 min 0 W/m 27,2 km/h (4 Bft) 93,62 %
05.03.2017 18:22 6,2 C 5,6 C 4,4 C 92 % 15 lf 995,5 hPa 0,0 l/m 0 min 2 min 0 W/m 27,2 km/h (4 Bft) 97,87 %
05.03.2017 18:24 6,1 C 5,0 C 3,9 C 92 % 15 lf 995,5 hPa 0,0 l/m 0 min 2 min 0 W/m 33,5 km/h (5 Bft) 95,74 %
05.03.2017 18:26 6,1 C 5,0 C 3,9 C 92 % 15 lf 995,5 hPa 0,0 l/m 0 min 2 min 0 W/m 31,4 km/h (5 Bft) 95,65 %
05.03.2017 18:28 6,1 C 5,0 C 3,9 C 92 % 15 lf 995,6 hPa 0,0 l/m 0 min 2 min 0 W/m 41,8 km/h (6 Bft) 97,87 %
05.03.2017 18:30 6,0 C 5,0 C 3,9 C 92 % 15 lf 995,5 hPa 0,0 l/m 0 min 2 min 0 W/m 25,1 km/h (4 Bft) 100,00 %
05.03.2017 18:32 6,0 C 5,0 C 3,9 C 92 % 15 lf 995,5 hPa 0,2 l/m 0 min 2 min 0 W/m 20,9 km/h (4 Bft) 97,87 %
05.03.2017 18:34 5,9 C 5,0 C 3,9 C 92 % 15 lf 995,5 hPa 0,0 l/m 0 min 2 min 0 W/m 23,0 km/h (4 Bft) 95,74 %
05.03.2017 18:36 5,9 C 5,0 C 3,9 C 92 % 15 lf 995,5 hPa 0,0 l/m 0 min 2 min 0 W/m 18,8 km/h (3 Bft) 95,74 %
05.03.2017 18:38 5,9 C 5,0 C 3,9 C 92 % 15 lf 995,5 hPa 0,0 l/m 0 min 2 min 0 W/m 14,6 km/h (3 Bft) 95,65 %
05.03.2017 18:40 5,9 C 5,0 C 3,9 C 92 % 15 lf 995,6 hPa 0,2 l/m 0 min 2 min 0 W/m 18,8 km/h (3 Bft) 100,00 %
05.03.2017 18:42 5,9 C 5,0 C 3,9 C 92 % 15 lf 995,6 hPa 0,0 l/m 0 min 2 min 0 W/m 31,4 km/h (5 Bft) 97,87 %
05.03.2017 18:44 5,8 C 5,0 C 3,9 C 92 % 15 lf 995,6 hPa 0,0 l/m 0 min 2 min 0 W/m 18,8 km/h (3 Bft) 97,87 %
05.03.2017 18:46 5,8 C 5,0 C 3,9 C 92 % 15 lf 995,6 hPa 0,0 l/m 0 min 2 min 0 W/m 16,7 km/h (3 Bft) 95,74 %
05.03.2017 18:48 5,8 C 5,0 C 3,9 C 92 % 15 lf 995,6 hPa 0,0 l/m 0 min 2 min 0 W/m 23,0 km/h (4 Bft) 97,87 %
05.03.2017 18:50 5,8 C 5,0 C 3,9 C 92 % 15 lf 995,6 hPa 0,0 l/m 0 min 2 min 0 W/m 12,6 km/h (3 Bft) 95,65 %
05.03.2017 18:52 5,8 C 5,0 C 3,9 C 92 % 15 lf 995,6 hPa 0,0 l/m 0 min 2 min 0 W/m 16,7 km/h (3 Bft) 97,87 %
05.03.2017 18:54 5,8 C 5,0 C 3,9 C 92 % 15 lf 995,6 hPa 0,2 l/m 0 min 2 min 0 W/m 16,7 km/h (3 Bft) 87,23 %
05.03.2017 18:56 5,7 C 5,0 C 3,9 C 92 % 15 lf 995,6 hPa 0,0 l/m 0 min 2 min 0 W/m 18,8 km/h (3 Bft) 93,62 %
05.03.2017 18:58 5,7 C 5,0 C 3,9 C 92 % 15 lf 995,6 hPa 0,0 l/m 0 min 2 min 0 W/m 14,6 km/h (3 Bft) 97,87 %
05.03.2017 19:00 5,7 C 5,0 C 3,9 C 92 % 15 lf 995,7 hPa 0,0 l/m 0 min 2 min 0 W/m 16,7 km/h (3 Bft) 97,83 %
05.03.2017 19:02 5,7 C 5,0 C 3,9 C 92 % 15 lf 995,6 hPa 0,2 l/m 0 min 2 min 0 W/m 23,0 km/h (4 Bft) 95,74 %
05.03.2017 19:04 5,7 C 5,0 C 3,9 C 92 % 15 lf 995,7 hPa 0,0 l/m 0 min 2 min 0 W/m 10,5 km/h (2 Bft) 97,87 %
05.03.2017 19:06 5,7 C 5,0 C 3,9 C 92 % 15 lf 995,7 hPa 0,0 l/m 0 min 2 min 0 W/m 16,7 km/h (3 Bft) 97,87 %
05.03.2017 19:08 5,7 C 5,0 C 3,9 C 92 % 15 lf 995,7 hPa 0,0 l/m 0 min 2 min 0 W/m 18,8 km/h (3 Bft) 97,87 %
05.03.2017 19:10 5,6 C 5,0 C 3,9 C 93 % 15 lf 995,7 hPa 0,0 l/m 0 min 2 min 0 W/m 12,6 km/h (3 Bft) 95,74 %
05.03.2017 19:12 5,6 C 5,0 C 3,9 C 93 % 15 lf 995,7 hPa 0,0 l/m 0 min 2 min 0 W/m 14,6 km/h (3 Bft) 93,48 %
05.03.2017 19:14 5,6 C 5,0 C 3,9 C 93 % 15 lf 995,7 hPa 0,0 l/m 0 min 2 min 0 W/m 12,6 km/h (3 Bft) 95,74 %
05.03.2017 19:16 5,6 C 5,0 C 3,9 C 93 % 15 lf 995,7 hPa 0,0 l/m 0 min 2 min 0 W/m 12,6 km/h (3 Bft) 97,87 %
05.03.2017 19:18 5,6 C 5,0 C 3,9 C 93 % 15 lf 995,7 hPa 0,0 l/m 0 min 2 min 0 W/m 14,6 km/h (3 Bft) 97,87 %
05.03.2017 19:20 5,6 C 5,0 C 3,9 C 93 % 15 lf 995,8 hPa 0,0 l/m 0 min 2 min 0 W/m 14,6 km/h (3 Bft) 97,87 %
05.03.2017 19:22 5,6 C 5,0 C 3,9 C 93 % 15 lf 995,8 hPa 0,0 l/m 0 min 2 min 0 W/m 16,7 km/h (3 Bft) 91,49 %
05.03.2017 19:24 5,6 C 5,0 C 3,9 C 93 % 15 lf 995,7 hPa 0,2 l/m 0 min 2 min 0 W/m 18,8 km/h (3 Bft) 93,48 %
05.03.2017 19:26 5,6 C 5,0 C 3,9 C 93 % 15 lf 995,8 hPa 0,0 l/m 0 min 2 min 0 W/m 14,6 km/h (3 Bft) 93,62 %
05.03.2017 19:28 5,6 C 5,0 C 3,9 C 93 % 15 lf 995,8 hPa 0,0 l/m 0 min 2 min 0 W/m 16,7 km/h (3 Bft) 95,74 %
05.03.2017 19:30 5,5 C 5,0 C 3,9 C 93 % 15 lf 995,8 hPa 0,0 l/m 0 min 2 min 0 W/m 16,7 km/h (3 Bft) 97,87 %
05.03.2017 19:32 5,5 C 5,0 C 3,9 C 93 % 15 lf 995,8 hPa 0,0 l/m 0 min 2 min 0 W/m 14,6 km/h (3 Bft) 97,87 %
05.03.2017 19:34 5,5 C 5,0 C 3,9 C 93 % 15 lf 995,8 hPa 0,0 l/m 0 min 2 min 0 W/m 10,5 km/h (2 Bft) 91,49 %
05.03.2017 19:36 5,5 C 5,0 C 3,9 C 93 % 15 lf 995,9 hPa 0,0 l/m 0 min 2 min 0 W/m 12,6 km/h (3 Bft) 97,83 %
05.03.2017 19:38 5,5 C 5,0 C 3,9 C 93 % 15 lf 995,8 hPa 0,0 l/m 0 min 2 min 0 W/m 10,5 km/h (2 Bft) 97,87 %
05.03.2017 19:40 5,5 C 5,0 C 3,9 C 93 % 15 lf 995,8 hPa 0,0 l/m 0 min 2 min 0 W/m 8,4 km/h (2 Bft) 97,87 %
05.03.2017 19:42 5,5 C 5,0 C 3,9 C 93 % 15 lf 995,8 hPa 0,0 l/m 0 min 2 min 0 W/m 12,6 km/h (3 Bft) 91,49 %
05.03.2017 19:44 5,4 C 5,0 C 3,9 C 93 % 15 lf 995,8 hPa 0,2 l/m 0 min 2 min 0 W/m 14,6 km/h (3 Bft) 97,87 %
05.03.2017 19:46 5,4 C 5,0 C 3,9 C 94 % 15 lf 995,8 hPa 0,0 l/m 0 min 2 min 0 W/m 14,6 km/h (3 Bft) 93,62 %
05.03.2017 19:48 5,4 C 5,0 C 3,9 C 94 % 15 lf 995,8 hPa 0,0 l/m 0 min 2 min 0 W/m 14,6 km/h (3 Bft) 95,65 %
05.03.2017 19:50 5,4 C 5,0 C 3,9 C 94 % 15 lf 995,9 hPa 0,0 l/m 0 min 2 min 0 W/m 14,6 km/h (3 Bft) 93,62 %
05.03.2017 19:52 5,4 C 5,0 C 3,9 C 94 % 15 lf 995,8 hPa 0,0 l/m 0 min 2 min 0 W/m 14,6 km/h (3 Bft) 95,74 %
05.03.2017 19:54 5,4 C 5,0 C 3,9 C 94 % 15 lf 995,8 hPa 0,0 l/m 0 min 2 min 0 W/m 10,5 km/h (2 Bft) 97,87 %
05.03.2017 19:56 5,4 C 5,0 C 3,9 C 94 % 15 lf 995,8 hPa 0,2 l/m 0 min 2 min 0 W/m 8,4 km/h (2 Bft) 95,74 %
05.03.2017 19:58 5,4 C 5,0 C 3,9 C 94 % 15 lf 995,8 hPa 0,0 l/m 0 min 2 min 0 W/m 8,4 km/h (2 Bft) 97,87 %
05.03.2017 20:00 5,4 C 5,0 C 3,9 C 94 % 15 lf 995,8 hPa 0,0 l/m 0 min 2 min 0 W/m 10,5 km/h (2 Bft) 97,83 %
05.03.2017 20:02 5,4 C 5,0 C 3,9 C 94 % 15 lf 995,8 hPa 0,0 l/m 0 min 2 min 0 W/m 8,4 km/h (2 Bft) 93,62 %
05.03.2017 20:04 5,4 C 5,0 C 3,9 C 94 % 15 lf 995,8 hPa 0,2 l/m 0 min 2 min 0 W/m 10,5 km/h (2 Bft) 91,49 %
05.03.2017 20:06 5,4 C 5,0 C 3,9 C 94 % 15 lf 995,8 hPa 0,0 l/m 0 min 2 min 0 W/m 10,5 km/h (2 Bft) 97,87 %
05.03.2017 20:08 5,4 C 5,0 C 3,9 C 94 % 15 lf 995,8 hPa 0,0 l/m 0 min 2 min 0 W/m 8,4 km/h (2 Bft) 95,74 %
05.03.2017 20:10 5,4 C 5,0 C 3,9 C 94 % 15 lf 995,8 hPa 0,0 l/m 0 min 2 min 0 W/m 10,5 km/h (2 Bft) 97,83 %
05.03.2017 20:12 5,4 C 5,0 C 3,9 C 94 % 15 lf 995,8 hPa 0,0 l/m 0 min 2 min 0 W/m 14,6 km/h (3 Bft) 95,74 %
05.03.2017 20:14 5,4 C 5,0 C 3,9 C 94 % 15 lf 995,8 hPa 0,2 l/m 0 min 2 min 0 W/m 10,5 km/h (2 Bft) 95,74 %
05.03.2017 20:16 5,4 C 5,0 C 3,9 C 94 % 15 lf 995,8 hPa 0,0 l/m 0 min 2 min 0 W/m 10,5 km/h (2 Bft) 97,87 %
05.03.2017 20:18 5,3 C 5,0 C 3,9 C 94 % 15 lf 995,8 hPa 0,0 l/m 0 min 2 min 0 W/m 10,5 km/h (2 Bft) 93,62 %
05.03.2017 20:20 5,3 C 5,0 C 3,9 C 94 % 15 lf 995,8 hPa 0,0 l/m 0 min 2 min 0 W/m 10,5 km/h (2 Bft) 95,74 %
05.03.2017 20:22 5,3 C 5,0 C 3,9 C 94 % 15 lf 995,8 hPa 0,0 l/m 0 min 2 min 0 W/m 12,6 km/h (3 Bft) 97,87 %
05.03.2017 20:24 5,3 C 5,0 C 3,9 C 94 % 15 lf 995,8 hPa 0,0 l/m 0 min 2 min 0 W/m 10,5 km/h (2 Bft) 97,83 %
05.03.2017 20:26 5,3 C 5,0 C 3,9 C 94 % 15 lf 995,7 hPa 0,0 l/m 0 min 2 min 0 W/m 12,6 km/h (3 Bft) 97,87 %
05.03.2017 20:28 5,3 C 5,0 C 3,9 C 95 % 15 lf 995,7 hPa 0,0 l/m 0 min 2 min 0 W/m 8,4 km/h (2 Bft) 93,62 %
05.03.2017 20:30 5,3 C 5,0 C 3,9 C 95 % 15 lf 995,8 hPa 0,0 l/m 0 min 2 min 0 W/m 12,6 km/h (3 Bft) 95,74 %
05.03.2017 20:32 5,3 C 5,0 C 3,9 C 95 % 15 lf 995,8 hPa 0,0 l/m 0 min 2 min 0 W/m 14,6 km/h (3 Bft) 95,74 %
05.03.2017 20:34 5,3 C 5,0 C 3,9 C 94 % 15 lf 995,8 hPa 0,0 l/m 0 min 2 min 0 W/m 10,5 km/h (2 Bft) 95,65 %
05.03.2017 20:36 5,3 C 5,0 C 3,9 C 95 % 15 lf 995,8 hPa 0,2 l/m 0 min 2 min 0 W/m 12,6 km/h (3 Bft) 93,62 %
05.03.2017 20:38 5,3 C 5,0 C 3,9 C 95 % 15 lf 995,8 hPa 0,0 l/m 0 min 2 min 0 W/m 12,6 km/h (3 Bft) 97,87 %
05.03.2017 20:40 5,3 C 5,0 C 3,9 C 95 % 15 lf 995,9 hPa 0,0 l/m 0 min 2 min 0 W/m 10,5 km/h (2 Bft) 97,87 %
05.03.2017 20:42 5,3 C 5,0 C 3,9 C 95 % 15 lf 995,8 hPa 0,0 l/m 0 min 2 min 0 W/m 10,5 km/h (2 Bft) 100,00 %
05.03.2017 20:44 5,3 C 5,0 C 3,9 C 95 % 15 lf 995,8 hPa 0,0 l/m 0 min 2 min 0 W/m 12,6 km/h (3 Bft) 89,36 %
05.03.2017 20:46 5,3 C 5,0 C 3,9 C 95 % 15 lf 995,8 hPa 0,0 l/m 0 min 2 min 0 W/m 12,6 km/h (3 Bft) 97,83 %
05.03.2017 20:48 5,3 C 5,0 C 3,9 C 95 % 15 lf 995,8 hPa 0,2 l/m 0 min 2 min 0 W/m 14,6 km/h (3 Bft) 97,87 %
05.03.2017 20:50 5,3 C 5,0 C 3,9 C 95 % 15 lf 995,8 hPa 0,0 l/m 0 min 2 min 0 W/m 12,6 km/h (3 Bft) 97,87 %
05.03.2017 20:52 5,3 C 5,0 C 3,9 C 95 % 15 lf 995,8 hPa 0,0 l/m 0 min 2 min 0 W/m 10,5 km/h (2 Bft) 95,74 %
05.03.2017 20:54 5,3 C 5,0 C 3,9 C 95 % 15 lf 995,9 hPa 0,0 l/m 0 min 2 min 0 W/m 12,6 km/h (3 Bft) 93,62 %
05.03.2017 20:56 5,3 C 5,0 C 3,9 C 95 % 15 lf 995,9 hPa 0,0 l/m 0 min 2 min 0 W/m 10,5 km/h (2 Bft) 100,00 %
05.03.2017 20:58 5,2 C 5,0 C 3,9 C 95 % 15 lf 995,9 hPa 0,0 l/m 0 min 2 min 0 W/m 10,5 km/h (2 Bft) 100,00 %
05.03.2017 21:00 5,2 C 5,0 C 3,9 C 95 % 15 lf 995,9 hPa 0,0 l/m 0 min 2 min 0 W/m 10,5 km/h (2 Bft) 95,74 %
05.03.2017 21:02 5,2 C 5,0 C 3,9 C 95 % 15 lf 995,9 hPa 0,0 l/m 0 min 2 min 0 W/m 10,5 km/h (2 Bft) 91,49 %
05.03.2017 21:04 5,2 C 5,0 C 3,9 C 95 % 15 lf 996,0 hPa 0,0 l/m 0 min 2 min 0 W/m 10,5 km/h (2 Bft) 100,00 %
05.03.2017 21:06 5,2 C 5,0 C 3,9 C 95 % 15 lf 996,0 hPa 0,0 l/m 0 min 2 min 0 W/m 10,5 km/h (2 Bft) 100,00 %
05.03.2017 21:08 5,2 C 5,0 C 3,9 C 95 % 15 lf 996,0 hPa 0,2 l/m 0 min 2 min 0 W/m 8,4 km/h (2 Bft) 97,87 %
05.03.2017 21:10 5,2 C 5,0 C 3,9 C 95 % 15 lf 996,0 hPa 0,0 l/m 0 min 2 min 0 W/m 6,3 km/h (2 Bft) 93,48 %
05.03.2017 21:12 5,2 C 5,0 C 3,9 C 95 % 15 lf 996,0 hPa 0,0 l/m 0 min 2 min 0 W/m 6,3 km/h (2 Bft) 97,87 %
05.03.2017 21:14 5,2 C 5,0 C 3,9 C 95 % 15 lf 996,0 hPa 0,0 l/m 0 min 2 min 0 W/m 6,3 km/h (2 Bft) 100,00 %
05.03.2017 21:16 5,2 C 5,0 C 3,9 C 95 % 15 lf 996,1 hPa 0,0 l/m 0 min 2 min 0 W/m 6,3 km/h (2 Bft) 97,87 %
05.03.2017 21:18 5,2 C 5,0 C 3,9 C 95 % 15 lf 996,1 hPa 0,0 l/m 0 min 2 min 0 W/m 8,4 km/h (2 Bft) 95,74 %
05.03.2017 21:20 5,2 C 5,0 C 3,9 C 95 % 15 lf 996,2 hPa 0,0 l/m 0 min 2 min 0 W/m 12,6 km/h (3 Bft) 93,48 %
05.03.2017 21:22 5,2 C 5,0 C 3,9 C 95 % 15 lf 996,1 hPa 0,0 l/m 0 min 2 min 0 W/m 10,5 km/h (2 Bft) 95,74 %
05.03.2017 21:24 5,2 C 5,0 C 3,9 C 96 % 15 lf 996,2 hPa 0,0 l/m 0 min 2 min 0 W/m 10,5 km/h (2 Bft) 95,74 %
05.03.2017 21:26 5,2 C 5,0 C 3,9 C 96 % 15 lf 996,2 hPa 0,0 l/m 0 min 2 min 0 W/m 8,4 km/h (2 Bft) 93,62 %
05.03.2017 21:28 5,2 C 5,0 C 3,9 C 96 % 15 lf 996,2 hPa 0,0 l/m 0 min 2 min 0 W/m 6,3 km/h (2 Bft) 95,74 %
05.03.2017 21:30 5,2 C 5,0 C 3,9 C 96 % 15 lf 996,1 hPa 0,0 l/m 0 min 0 min 0 W/m 6,3 km/h (2 Bft) 89,36 %
05.03.2017 21:32 5,2 C 5,0 C 3,9 C 96 % 15 lf 996,2 hPa 0,0 l/m 0 min 0 min 0 W/m 8,4 km/h (2 Bft) 93,48 %
05.03.2017 21:34 5,2 C 5,0 C 3,9 C 96 % 15 lf 996,1 hPa 0,0 l/m 0 min 0 min 0 W/m 6,3 km/h (2 Bft) 93,62 %
05.03.2017 21:36 5,2 C 5,0 C 3,9 C 96 % 15 lf 996,2 hPa 0,0 l/m 0 min 0 min 0 W/m 10,5 km/h (2 Bft) 93,62 %
05.03.2017 21:38 5,2 C 5,0 C 3,9 C 96 % 15 lf 996,2 hPa 0,0 l/m 0 min 0 min 0 W/m 14,6 km/h (3 Bft) 93,62 %
05.03.2017 21:40 5,2 C 5,0 C 3,9 C 96 % 15 lf 996,2 hPa 0,0 l/m 0 min 0 min 0 W/m 12,6 km/h (3 Bft) 93,62 %
05.03.2017 21:42 5,3 C 5,0 C 3,9 C 96 % 15 lf 996,3 hPa 0,0 l/m 0 min 0 min 0 W/m 8,4 km/h (2 Bft) 91,49 %
05.03.2017 21:44 5,3 C 5,0 C 3,9 C 96 % 15 lf 996,2 hPa 0,0 l/m 0 min 0 min 0 W/m 12,6 km/h (3 Bft) 93,48 %
05.03.2017 21:46 5,3 C 5,0 C 3,9 C 96 % 15 lf 996,3 hPa 0,0 l/m 0 min 0 min 0 W/m 10,5 km/h (2 Bft) 93,62 %
05.03.2017 21:48 5,2 C 5,0 C 3,9 C 96 % 15 lf 996,3 hPa 0,0 l/m 0 min 0 min 0 W/m 6,3 km/h (2 Bft) 95,74 %
05.03.2017 21:50 5,2 C 5,0 C 3,9 C 96 % 15 lf 996,3 hPa 0,0 l/m 0 min 0 min 0 W/m 8,4 km/h (2 Bft) 93,62 %
05.03.2017 21:52 5,2 C 5,0 C 3,9 C 96 % 15 lf 996,4 hPa 0,0 l/m 0 min 0 min 0 W/m 6,3 km/h (2 Bft) 93,62 %
05.03.2017 21:54 5,2 C 5,0 C 3,9 C 96 % 15 lf 996,4 hPa 0,0 l/m 0 min 0 min 0 W/m 10,5 km/h (2 Bft) 93,62 %
05.03.2017 21:56 5,2 C 5,0 C 3,9 C 96 % 15 lf 996,4 hPa 0,0 l/m 0 min 0 min 0 W/m 12,6 km/h (3 Bft) 95,65 %
05.03.2017 21:58 5,2 C 5,0 C 3,9 C 96 % 15 lf 996,4 hPa 0,0 l/m 0 min 0 min 0 W/m 8,4 km/h (2 Bft) 95,74 %
05.03.2017 22:00 5,2 C 5,0 C 3,9 C 96 % 15 lf 996,5 hPa 0,0 l/m 0 min 0 min 0 W/m 8,4 km/h (2 Bft) 95,74 %
05.03.2017 22:02 5,2 C 5,0 C 3,9 C 96 % 15 lf 996,4 hPa 0,0 l/m 0 min 0 min 0 W/m 8,4 km/h (2 Bft) 100,00 %
05.03.2017 22:04 5,2 C 5,0 C 3,9 C 96 % 15 lf 996,4 hPa 0,0 l/m 0 min 0 min 0 W/m 12,6 km/h (3 Bft) 97,87 %
05.03.2017 22:06 5,2 C 5,0 C 3,9 C 96 % 15 lf 996,5 hPa 0,0 l/m 0 min 0 min 0 W/m 12,6 km/h (3 Bft) 97,87 %
05.03.2017 22:08 5,2 C 5,0 C 3,9 C 96 % 15 lf 996,5 hPa 0,0 l/m 0 min 0 min 0 W/m 12,6 km/h (3 Bft) 97,83 %
05.03.2017 22:10 5,2 C 5,0 C 3,9 C 96 % 15 lf 996,5 hPa 0,0 l/m 0 min 0 min 0 W/m 6,3 km/h (2 Bft) 97,87 %
05.03.2017 22:12 5,2 C 5,0 C 3,9 C 96 % 15 lf 996,6 hPa 0,0 l/m 0 min 0 min 0 W/m 6,3 km/h (2 Bft) 93,62 %
05.03.2017 22:14 5,2 C 5,0 C 3,9 C 96 % 15 lf 996,6 hPa 0,0 l/m 0 min 0 min 0 W/m 14,6 km/h (3 Bft) 97,87 %
05.03.2017 22:16 5,2 C 5,0 C 3,9 C 96 % 15 lf 996,6 hPa 0,0 l/m 0 min 0 min 0 W/m 12,6 km/h (3 Bft) 97,87 %
05.03.2017 22:18 5,2 C 5,0 C 3,9 C 96 % 15 lf 996,6 hPa 0,0 l/m 0 min 0 min 0 W/m 6,3 km/h (2 Bft) 95,74 %
05.03.2017 22:20 5,2 C 5,0 C 3,9 C 96 % 15 lf 996,6 hPa 0,0 l/m 0 min 0 min 0 W/m 14,6 km/h (3 Bft) 97,83 %
05.03.2017 22:22 5,2 C 5,0 C 3,9 C 96 % 15 lf 996,6 hPa 0,0 l/m 0 min 0 min 0 W/m 10,5 km/h (2 Bft) 95,74 %
05.03.2017 22:24 5,2 C 5,0 C 3,9 C 96 % 15 lf 996,6 hPa 0,0 l/m 0 min 0 min 0 W/m 14,6 km/h (3 Bft) 97,87 %
05.03.2017 22:26 5,2 C 5,0 C 3,9 C 96 % 15 lf 996,6 hPa 0,0 l/m 0 min 0 min 0 W/m 12,6 km/h (3 Bft) 97,87 %
05.03.2017 22:28 5,2 C 5,0 C 3,9 C 96 % 15 lf 996,6 hPa 0,0 l/m 0 min 0 min 0 W/m 10,5 km/h (2 Bft) 97,87 %
05.03.2017 22:30 5,3 C 5,0 C 3,9 C 96 % 15 lf 996,6 hPa 0,0 l/m 0 min 0 min 0 W/m 8,4 km/h (2 Bft) 95,74 %
05.03.2017 22:32 5,3 C 5,0 C 3,9 C 96 % 15 lf 996,6 hPa 0,0 l/m 0 min 0 min 0 W/m 12,6 km/h (3 Bft) 95,65 %
05.03.2017 22:34 5,3 C 5,0 C 3,9 C 96 % 15 lf 996,7 hPa 0,0 l/m 0 min 0 min 0 W/m 12,6 km/h (3 Bft) 95,74 %
05.03.2017 22:36 5,3 C 5,0 C 3,9 C 96 % 15 lf 996,7 hPa 0,0 l/m 0 min 0 min 0 W/m 16,7 km/h (3 Bft) 95,74 %
05.03.2017 22:38 5,3 C 5,0 C 3,9 C 96 % 15 lf 996,7 hPa 0,0 l/m 0 min 0 min 0 W/m 16,7 km/h (3 Bft) 97,87 %
05.03.2017 22:40 5,3 C 5,0 C 3,9 C 96 % 15 lf 996,8 hPa 0,0 l/m 0 min 0 min 0 W/m 10,5 km/h (2 Bft) 95,74 %
05.03.2017 22:42 5,3 C 5,0 C 3,9 C 96 % 15 lf 996,8 hPa 0,0 l/m 0 min 0 min 0 W/m 18,8 km/h (3 Bft) 100,00 %
05.03.2017 22:44 5,3 C 5,0 C 3,9 C 96 % 15 lf 996,7 hPa 0,0 l/m 0 min 0 min 0 W/m 14,6 km/h (3 Bft) 100,00 %
05.03.2017 22:46 5,3 C 5,0 C 3,9 C 96 % 15 lf 996,8 hPa 0,0 l/m 0 min 0 min 0 W/m 12,6 km/h (3 Bft) 97,87 %
05.03.2017 22:48 5,3 C 5,0 C 3,9 C 96 % 15 lf 996,8 hPa 0,0 l/m 0 min 0 min 0 W/m 12,6 km/h (3 Bft) 93,62 %
05.03.2017 22:50 5,3 C 5,0 C 3,9 C 96 % 15 lf 996,8 hPa 0,0 l/m 0 min 0 min 0 W/m 16,7 km/h (3 Bft) 100,00 %
05.03.2017 22:52 5,3 C 5,0 C 3,9 C 96 % 15 lf 996,8 hPa 0,0 l/m 0 min 0 min 0 W/m 10,5 km/h (2 Bft) 97,87 %
05.03.2017 22:54 5,3 C 5,0 C 3,9 C 96 % 15 lf 996,9 hPa 0,0 l/m 0 min 0 min 0 W/m 10,5 km/h (2 Bft) 95,65 %
05.03.2017 22:56 5,3 C 5,0 C 3,9 C 96 % 15 lf 996,9 hPa 0,0 l/m 0 min 0 min 0 W/m 14,6 km/h (3 Bft) 95,74 %
05.03.2017 22:58 5,3 C 5,0 C 3,9 C 96 % 15 lf 996,9 hPa 0,0 l/m 0 min 0 min 0 W/m 16,7 km/h (3 Bft) 93,62 %
05.03.2017 23:00 5,3 C 5,0 C 3,9 C 96 % 15 lf 996,9 hPa 0,0 l/m 0 min 0 min 0 W/m 16,7 km/h (3 Bft) 95,74 %
05.03.2017 23:02 5,4 C 5,0 C 3,9 C 96 % 14 lf 996,9 hPa 0,0 l/m 0 min 0 min 0 W/m 10,5 km/h (2 Bft) 95,74 %
05.03.2017 23:04 5,4 C 5,0 C 3,9 C 96 % 14 lf 996,9 hPa 0,0 l/m 0 min 0 min 0 W/m 14,6 km/h (3 Bft) 95,74 %
05.03.2017 23:06 5,4 C 5,0 C 3,9 C 96 % 14 lf 997,0 hPa 0,0 l/m 0 min 0 min 0 W/m 14,6 km/h (3 Bft) 95,65 %
05.03.2017 23:08 5,4 C 5,6 C 3,9 C 96 % 14 lf 997,0 hPa 0,0 l/m 0 min 0 min 0 W/m 20,9 km/h (4 Bft) 89,36 %
05.03.2017 23:10 5,5 C 5,6 C 4,4 C 96 % 13 lf 997,0 hPa 0,0 l/m 0 min 0 min 0 W/m 18,8 km/h (3 Bft) 95,74 %
05.03.2017 23:12 5,5 C 5,6 C 4,4 C 96 % 13 lf 997,0 hPa 0,0 l/m 0 min 0 min 0 W/m 18,8 km/h (3 Bft) 93,62 %
05.03.2017 23:14 5,5 C 5,6 C 4,4 C 96 % 13 lf 997,0 hPa 0,0 l/m 0 min 0 min 0 W/m 20,9 km/h (4 Bft) 91,49 %
05.03.2017 23:16 5,6 C 5,6 C 4,4 C 96 % 12 lf 997,0 hPa 0,0 l/m 0 min 0 min 0 W/m 14,6 km/h (3 Bft) 95,74 %
05.03.2017 23:18 5,6 C 5,6 C 4,4 C 96 % 12 lf 997,1 hPa 0,0 l/m 0 min 0 min 0 W/m 18,8 km/h (3 Bft) 93,48 %
05.03.2017 23:20 5,6 C 5,6 C 4,4 C 96 % 11 lf 997,2 hPa 0,0 l/m 0 min 0 min 0 W/m 18,8 km/h (3 Bft) 93,62 %
05.03.2017 23:22 5,6 C 5,6 C 4,4 C 96 % 10 lf 997,2 hPa 0,0 l/m 0 min 0 min 0 W/m 18,8 km/h (3 Bft) 95,74 %
05.03.2017 23:24 5,7 C 5,6 C 4,4 C 96 % 10 lf 997,1 hPa 0,0 l/m 0 min 0 min 0 W/m 20,9 km/h (4 Bft) 95,74 %
05.03.2017 23:26 5,7 C 5,6 C 4,4 C 96 % 10 lf 997,3 hPa 0,0 l/m 0 min 0 min 0 W/m 20,9 km/h (4 Bft) 93,62 %
05.03.2017 23:28 5,7 C 5,6 C 4,4 C 95 % 9 lf 997,2 hPa 0,0 l/m 0 min 0 min 0 W/m 16,7 km/h (3 Bft) 97,87 %
05.03.2017 23:30 5,7 C 5,6 C 4,4 C 95 % 7 lf 997,2 hPa 0,0 l/m 0 min 0 min 0 W/m 20,9 km/h (4 Bft) 95,65 %
05.03.2017 23:32 5,7 C 5,6 C 4,4 C 95 % 7 lf 997,2 hPa 0,0 l/m 0 min 0 min 0 W/m 20,9 km/h (4 Bft) 97,87 %
05.03.2017 23:34 5,7 C 5,6 C 4,4 C 95 % 6 lf 997,2 hPa 0,0 l/m 0 min 0 min 0 W/m 18,8 km/h (3 Bft) 97,87 %
05.03.2017 23:36 5,8 C 5,6 C 3,9 C 95 % 5 lf 997,2 hPa 0,0 l/m 0 min 0 min 0 W/m 20,9 km/h (4 Bft) 97,87 %
05.03.2017 23:38 5,8 C 5,6 C 3,9 C 95 % 4 lf 997,2 hPa 0,0 l/m 0 min 0 min 0 W/m 18,8 km/h (3 Bft) 91,49 %
05.03.2017 23:40 5,8 C 5,6 C 3,9 C 95 % 4 lf 997,2 hPa 0,0 l/m 0 min 0 min 0 W/m 27,2 km/h (4 Bft) 97,83 %
05.03.2017 23:42 5,8 C 5,6 C 3,9 C 95 % 4 lf 997,3 hPa 0,0 l/m 0 min 0 min 0 W/m 16,7 km/h (3 Bft) 95,74 %
05.03.2017 23:44 5,8 C 5,6 C 3,9 C 95 % 3 lf 997,2 hPa 0,0 l/m 0 min 0 min 0 W/m 23,0 km/h (4 Bft) 100,00 %
05.03.2017 23:46 5,8 C 5,6 C 3,9 C 95 % 3 lf 997,3 hPa 0,0 l/m 0 min 0 min 0 W/m 16,7 km/h (3 Bft) 100,00 %
05.03.2017 23:48 5,8 C 5,0 C 3,9 C 95 % 3 lf 997,3 hPa 0,0 l/m 0 min 0 min 0 W/m 16,7 km/h (3 Bft) 97,87 %
05.03.2017 23:50 5,8 C 5,0 C 3,9 C 95 % 3 lf 997,3 hPa 0,0 l/m 0 min 0 min 0 W/m 10,5 km/h (2 Bft) 97,87 %
05.03.2017 23:52 5,7 C 5,0 C 3,9 C 95 % 3 lf 997,3 hPa 0,0 l/m 0 min 0 min 0 W/m 12,6 km/h (3 Bft) 97,83 %
05.03.2017 23:54 5,7 C 5,0 C 3,9 C 95 % 2 lf 997,4 hPa 0,0 l/m 0 min 0 min 0 W/m 14,6 km/h (3 Bft) 97,87 %
05.03.2017 23:56 5,7 C 5,0 C 3,9 C 95 % 2 lf 997,4 hPa 0,0 l/m 0 min 0 min 0 W/m 18,8 km/h (3 Bft) 95,74 %
05.03.2017 23:58 5,7 C 5,0 C 3,9 C 95 % 2 lf 997,4 hPa 0,0 l/m 0 min 0 min 0 W/m 16,7 km/h (3 Bft) 97,87 %
_ Min-Zeit 20:56 18:24 18:24 13:54 03:20 00:00 - - - - 01:18 17:28
Minimum _ 5,2 C 5,0 C 3,9 C 57 % 0 lf 993,8 hPa - - - - 6,3 km/h (2 Bft) 85,11 %
_ Max-Zeit 13:52 10:04 11:06 00:00 00:00 08:52 01:32 08:14 00:00 11:54 11:22 00:34
Maximum _ 11,7 C 17,2 C 13,3 C 97 % 15 lf 999,6 hPa 0,2 l/m 2 min 2 min 683 W/m 56,5 km/h
S-SW (7 Bft)
100,00 %
Durchschnitt _ 7,5 C 8,2 C 6,3 C 86 % 6 lf 996,9 hPa #6,2 l/m #4:50 h #7:18 h 251 W/m 23,1 km/h (4 Bft) 95,92 %
© 2017 W. Hausmann